Time,TemperatureF,DewpointF,PressureIn,WindDirection,WindDirectionDegrees,WindSpeedMPH,WindSpeedGustMPH,Humidity,HourlyPrecipIn,Conditions,Clouds,dailyrainin,SoftwareType,DateUTC
2013-08-16 00:01:00,68.3,60.8,29.99,SSW,205,1.2,1.2,77,0.00,SCT,,0.00,WeatherDisplay:10.37,2013-08-16 07:01:00,
2013-08-16 00:03:00,68.2,60.7,29.99,SSE,159,4.6,4.6,77,0.00,SCT,,0.00,WeatherDisplay:10.37,2013-08-16 07:03:00,
2013-08-16 00:04:00,68.2,60.7,29.99,SSW,195,0.0,0.1,77,0.00,SCT,,0.00,WeatherDisplay:10.37,2013-08-16 07:04:00,
2013-08-16 00:06:00,68.1,60.6,30.00,SSW,201,2.3,2.3,77,0.00,SCT,,0.00,WeatherDisplay:10.37,2013-08-16 07:06:00,
2013-08-16 00:07:00,68.1,60.6,30.00,SSW,201,2.3,2.3,77,0.00,SCT,,0.00,WeatherDisplay:10.37,2013-08-16 07:07:00,
2013-08-16 00:08:00,68.2,60.7,30.00,SSW,201,1.0,0.0,77,0.00,SCT,,0.00,WeatherDisplay:10.37,2013-08-16 07:08:00,
2013-08-16 00:09:00,68.2,60.7,30.00,SSW,205,0.0,0.5,77,0.00,SCT,,0.00,WeatherDisplay:10.37,2013-08-16 07:09:00,
2013-08-16 00:12:00,68.3,60.8,30.00,East,87,1.2,1.2,77,0.00,SCT,,0.00,WeatherDisplay:10.37,2013-08-16 07:12:00,
2013-08-16 00:14:00,68.4,60.5,30.00,SW,216,1.2,1.2,76,0.00,SCT,,0.00,WeatherDisplay:10.37,2013-08-16 07:14:00,
2013-08-16 00:15:00,68.4,60.6,30.00,SSW,194,0.0,1.0,76,0.00,SCT,,0.00,WeatherDisplay:10.37,2013-08-16 07:15:00,
2013-08-16 00:17:00,68.6,60.7,30.00,SSW,204,0.0,0.0,76,0.00,SCT,,0.00,WeatherDisplay:10.37,2013-08-16 07:17:00,
2013-08-16 00:18:00,68.5,60.6,30.00,South,171,1.0,1.0,76,0.00,SCT,,0.00,WeatherDisplay:10.37,2013-08-16 07:18:00,
2013-08-16 00:19:00,68.5,61.0,29.99,West,270,1.2,1.2,77,0.00,SCT,,0.00,WeatherDisplay:10.37,2013-08-16 07:19:00,
2013-08-16 00:20:00,68.5,60.6,29.99,ENE,71,3.0,3.0,76,0.00,SCT,,0.00,WeatherDisplay:10.37,2013-08-16 07:20:00,
2013-08-16 00:22:00,68.5,61.0,29.99,ESE,108,0.0,0.0,77,0.00,SCT,,0.00,WeatherDisplay:10.37,2013-08-16 07:22:00,
2013-08-16 00:24:00,68.5,61.0,29.99,ESE,108,0.0,0.0,77,0.00,SCT,,0.00,WeatherDisplay:10.37,2013-08-16 07:24:00,
2013-08-16 00:25:00,68.5,61.0,29.99,SSE,159,1.0,1.0,77,0.00,SCT,,0.00,WeatherDisplay:10.37,2013-08-16 07:25:00,
2013-08-16 00:26:00,68.5,61.0,29.99,WSW,253,1.2,1.2,77,0.00,SCT,,0.00,WeatherDisplay:10.37,2013-08-16 07:26:00,
2013-08-16 00:28:00,68.5,60.6,29.99,SSE,148,3.0,3.0,76,0.00,SCT,,0.00,WeatherDisplay:10.37,2013-08-16 07:28:00,
2013-08-16 00:30:00,68.4,60.9,29.99,SSE,155,2.3,2.3,77,0.00,SCT,,0.00,WeatherDisplay:10.37,2013-08-16 07:30:00,
2013-08-16 00:31:00,68.4,60.5,29.99,SSE,155,0.0,0.0,76,0.00,SCT,,0.00,WeatherDisplay:10.37,2013-08-16 07:31:00,
2013-08-16 00:33:00,68.3,60.8,30.00,SSE,155,0.0,0.0,77,0.00,SCT,,0.00,WeatherDisplay:10.37,2013-08-16 07:33:00,
2013-08-16 00:36:00,68.2,60.7,29.99,SE,139,1.2,0.0,77,0.00,SCT,,0.00,WeatherDisplay:10.37,2013-08-16 07:36:00,
2013-08-16 00:38:00,68.0,60.5,29.99,SE,139,0.0,0.0,77,0.00,SCT,,0.00,WeatherDisplay:10.37,2013-08-16 07:38:00,
2013-08-16 00:39:00,68.0,60.9,29.99,SE,139,0.0,0.0,78,0.00,SCT,,0.00,WeatherDisplay:10.37,2013-08-16 07:39:00,
2013-08-16 00:41:00,67.9,60.4,29.99,SE,139,1.2,1.2,77,0.00,SCT,,0.00,WeatherDisplay:10.37,2013-08-16 07:41:00,
2013-08-16 00:42:00,67.9,60.4,29.99,SE,139,1.2,1.2,77,0.00,SCT,,0.00,WeatherDisplay:10.37,2013-08-16 07:42:00,
2013-08-16 00:44:00,67.8,60.7,29.99,SW,234,2.3,2.3,78,0.00,SCT,,0.00,WeatherDisplay:10.37,2013-08-16 07:44:00,
2013-08-16 00:47:00,67.7,60.6,29.99,SW,235,1.0,1.0,78,0.00,SCT,,0.00,WeatherDisplay:10.37,2013-08-16 07:47:00,
2013-08-16 00:48:00,67.7,60.6,29.99,SW,235,1.2,0.0,78,0.00,SCT,,0.00,WeatherDisplay:10.37,2013-08-16 07:48:00,
2013-08-16 00:49:00,67.7,60.2,29.99,SW,235,0.0,0.0,77,0.00,SCT,,0.00,WeatherDisplay:10.37,2013-08-16 07:49:00,
2013-08-16 00:50:00,67.7,60.6,29.99,SW,235,0.0,0.0,78,0.00,SCT,,0.00,WeatherDisplay:10.37,2013-08-16 07:50:00,
2013-08-16 00:52:00,67.7,60.2,29.99,SW,235,0.0,0.0,77,0.00,SCT,,0.00,WeatherDisplay:10.37,2013-08-16 07:52:00,
2013-08-16 00:54:00,67.8,60.3,29.99,SW,235,0.0,0.0,77,0.00,SCT,,0.00,WeatherDisplay:10.37,2013-08-16 07:54:00,
2013-08-16 00:56:00,67.8,60.3,29.99,SW,235,0.0,0.0,77,0.00,SCT,,0.00,WeatherDisplay:10.37,2013-08-16 07:56:00,
2013-08-16 00:57:00,67.8,60.3,29.99,SW,235,0.0,0.0,77,0.00,SCT,,0.00,WeatherDisplay:10.37,2013-08-16 07:57:00,
2013-08-16 00:58:00,67.8,60.3,29.99,SW,235,0.0,0.0,77,0.00,SCT,,0.00,WeatherDisplay:10.37,2013-08-16 07:58:00,
2013-08-16 00:59:00,67.8,60.3,29.99,SW,235,0.0,0.0,77,0.00,SCT,,0.00,WeatherDisplay:10.37,2013-08-16 07:59:00,
2013-08-16 01:00:00,67.8,60.3,29.99,SW,235,0.0,0.0,77,0.00,SCT,,0.00,WeatherDisplay:10.37,2013-08-16 08:00:00,
2013-08-16 01:02:00,67.8,60.3,29.99,SW,235,0.0,0.0,77,0.00,SCT,,0.00,WeatherDisplay:10.37,2013-08-16 08:02:00,
2013-08-16 01:04:00,67.8,60.3,29.99,SW,235,0.0,0.0,77,0.00,SCT,,0.00,WeatherDisplay:10.37,2013-08-16 08:04:00,
2013-08-16 01:05:00,67.8,60.3,29.99,SW,235,0.0,0.0,77,0.00,SCT,,0.00,WeatherDisplay:10.37,2013-08-16 08:05:00,
2013-08-16 01:06:00,67.8,60.3,29.99,SW,235,0.0,0.0,77,0.00,SCT,,0.00,WeatherDisplay:10.37,2013-08-16 08:06:00,
2013-08-16 01:07:00,67.8,60.3,29.99,SW,235,0.0,0.0,77,0.00,SCT,,0.00,WeatherDisplay:10.37,2013-08-16 08:07:00,
2013-08-16 01:09:00,67.8,60.3,29.99,SW,235,0.0,0.0,77,0.00,SCT,,0.00,WeatherDisplay:10.37,2013-08-16 08:09:00,
2013-08-16 01:11:00,67.7,60.2,29.99,SW,235,0.0,0.0,77,0.00,SCT,,0.00,WeatherDisplay:10.37,2013-08-16 08:11:00,
2013-08-16 01:12:00,67.7,60.2,29.99,SW,235,0.0,0.0,77,0.00,SCT,,0.00,WeatherDisplay:10.37,2013-08-16 08:12:00,
2013-08-16 01:15:00,67.7,59.9,29.99,SW,235,0.0,0.0,76,0.00,SCT,,0.00,WeatherDisplay:10.37,2013-08-16 08:15:00,
2013-08-16 01:18:00,67.7,60.2,29.99,SW,235,0.0,0.0,77,0.00,SCT,,0.00,WeatherDisplay:10.37,2013-08-16 08:18:00,
2013-08-16 01:19:00,67.7,59.9,29.99,SW,235,0.0,0.0,76,0.00,SCT,,0.00,WeatherDisplay:10.37,2013-08-16 08:19:00,
2013-08-16 01:20:00,67.6,59.8,29.99,SW,235,0.0,0.0,76,0.00,SCT,,0.00,WeatherDisplay:10.37,2013-08-16 08:20:00,
2013-08-16 01:21:00,67.6,59.8,29.99,SW,235,0.0,0.0,76,0.00,SCT,,0.00,WeatherDisplay:10.37,2013-08-16 08:21:00,
2013-08-16 01:24:00,67.5,60.0,29.99,SW,235,0.0,0.0,77,0.00,SCT,,0.00,WeatherDisplay:10.37,2013-08-16 08:24:00,
2013-08-16 01:25:00,67.4,59.9,29.98,SW,235,0.0,0.0,77,0.00,SCT,,0.00,WeatherDisplay:10.37,2013-08-16 08:25:00,
2013-08-16 01:26:00,67.3,59.8,29.98,SW,216,2.0,2.0,77,0.00,SCT,,0.00,WeatherDisplay:10.37,2013-08-16 08:26:00,
2013-08-16 01:27:00,67.3,59.8,29.98,SSW,205,2.3,2.3,77,0.00,SCT,,0.00,WeatherDisplay:10.37,2013-08-16 08:27:00,
2013-08-16 01:29:00,67.3,59.8,29.98,SSW,205,2.3,2.3,77,0.00,SCT,,0.00,WeatherDisplay:10.37,2013-08-16 08:29:00,
2013-08-16 01:31:00,67.3,59.8,29.98,SSW,205,1.2,0.0,77,0.00,SCT,,0.00,WeatherDisplay:10.37,2013-08-16 08:31:00,
2013-08-16 01:32:00,67.1,60.0,29.98,SSW,205,0.0,0.0,78,0.00,SCT,,0.00,WeatherDisplay:10.37,2013-08-16 08:32:00,
2013-08-16 01:33:00,67.1,59.6,29.99,SSW,205,0.0,0.0,77,0.00,SCT,,0.00,WeatherDisplay:10.37,2013-08-16 08:33:00,
2013-08-16 01:34:00,67.1,60.0,29.98,SSW,205,0.0,0.0,78,0.00,SCT,,0.00,WeatherDisplay:10.37,2013-08-16 08:34:00,
2013-08-16 01:36:00,67.1,59.6,29.99,SSW,205,0.0,0.0,77,0.00,SCT,,0.00,WeatherDisplay:10.37,2013-08-16 08:36:00,
2013-08-16 01:38:00,67.1,60.0,29.98,SSW,205,0.0,0.0,78,0.00,SCT,,0.00,WeatherDisplay:10.37,2013-08-16 08:38:00,
2013-08-16 01:39:00,67.1,59.6,29.98,SSW,205,1.2,0.0,77,0.00,SCT,,0.00,WeatherDisplay:10.37,2013-08-16 08:39:00,
2013-08-16 01:41:00,67.1,59.6,29.98,SSW,205,0.0,0.0,77,0.00,SCT,,0.00,WeatherDisplay:10.37,2013-08-16 08:41:00,
2013-08-16 01:43:00,67.1,59.6,29.98,SSW,205,1.2,0.0,77,0.00,SCT,,0.00,WeatherDisplay:10.37,2013-08-16 08:43:00,
2013-08-16 01:44:00,67.1,59.6,29.98,SSW,205,0.0,0.0,77,0.00,SCT,,0.00,WeatherDisplay:10.37,2013-08-16 08:44:00,
2013-08-16 01:45:00,67.1,59.6,29.98,SSW,205,1.2,1.2,77,0.00,SCT,,0.00,WeatherDisplay:10.37,2013-08-16 08:45:00,
2013-08-16 01:47:00,67.2,59.7,29.98,SSW,205,0.0,0.0,77,0.00,SCT,,0.00,WeatherDisplay:10.37,2013-08-16 08:47:00,
2013-08-16 01:48:00,67.1,59.6,29.98,SSE,151,2.3,2.3,77,0.00,SCT,,0.00,WeatherDisplay:10.37,2013-08-16 08:48:00,
2013-08-16 01:49:00,67.1,59.6,29.98,SSE,151,3.5,3.5,77,0.00,SCT,,0.00,WeatherDisplay:10.37,2013-08-16 08:49:00,
2013-08-16 01:50:00,67.1,59.6,29.98,SSE,151,0.0,0.0,77,0.00,SCT,,0.00,WeatherDisplay:10.37,2013-08-16 08:50:00,
2013-08-16 01:52:00,67.1,59.6,29.98,South,172,1.2,1.2,77,0.00,SCT,,0.00,WeatherDisplay:10.37,2013-08-16 08:52:00,
2013-08-16 01:54:00,67.1,59.6,29.98,South,173,1.2,0.0,77,0.00,SCT,,0.00,WeatherDisplay:10.37,2013-08-16 08:54:00,
2013-08-16 01:55:00,67.1,59.6,29.98,ESE,116,1.2,0.0,77,0.00,SCT,,0.00,WeatherDisplay:10.37,2013-08-16 08:55:00,
2013-08-16 01:56:00,67.1,59.6,29.98,ESE,116,0.0,0.0,77,0.00,SCT,,0.00,WeatherDisplay:10.37,2013-08-16 08:56:00,
2013-08-16 01:57:00,67.1,59.6,29.98,ESE,116,0.0,0.0,77,0.00,SCT,,0.00,WeatherDisplay:10.37,2013-08-16 08:57:00,
2013-08-16 01:58:00,67.0,59.5,29.98,ESE,116,0.0,0.0,77,0.00,SCT,,0.00,WeatherDisplay:10.37,2013-08-16 08:58:00,
2013-08-16 01:59:00,67.0,59.5,29.98,ESE,116,0.0,0.0,77,0.00,SCT,,0.00,WeatherDisplay:10.37,2013-08-16 08:59:00,
2013-08-16 02:00:00,67.0,59.9,29.98,ESE,123,1.2,1.2,78,0.00,SCT,,0.00,WeatherDisplay:10.37,2013-08-16 09:00:00,
2013-08-16 02:02:00,67.0,59.9,29.98,ESE,123,1.2,0.0,78,0.00,SCT,,0.00,WeatherDisplay:10.37,2013-08-16 09:02:00,
2013-08-16 02:04:00,67.0,59.9,29.98,ESE,123,0.0,0.0,78,0.00,SCT,,0.00,WeatherDisplay:10.37,2013-08-16 09:04:00,
2013-08-16 02:05:00,67.0,59.9,29.98,ESE,123,0.0,0.0,78,0.00,SCT,,0.00,WeatherDisplay:10.37,2013-08-16 09:05:00,
2013-08-16 02:06:00,67.0,59.5,29.98,ESE,123,0.0,0.0,77,0.00,SCT,,0.00,WeatherDisplay:10.37,2013-08-16 09:06:00,
2013-08-16 02:07:00,67.0,59.5,29.98,ESE,123,0.0,0.0,77,0.00,SCT,,0.00,WeatherDisplay:10.37,2013-08-16 09:07:00,
2013-08-16 02:08:00,67.0,59.9,29.98,ESE,123,0.0,0.0,78,0.00,SCT,,0.00,WeatherDisplay:10.37,2013-08-16 09:08:00,
2013-08-16 02:10:00,67.0,59.5,29.98,ESE,123,0.0,0.0,77,0.00,SCT,,0.00,WeatherDisplay:10.37,2013-08-16 09:10:00,
2013-08-16 02:12:00,67.0,59.9,29.98,ESE,123,0.0,0.0,78,0.00,SCT,,0.00,WeatherDisplay:10.37,2013-08-16 09:12:00,
2013-08-16 02:13:00,66.9,59.5,29.98,ESE,123,0.0,0.0,77,0.00,SCT,,0.00,WeatherDisplay:10.37,2013-08-16 09:13:00,
2013-08-16 02:16:00,66.9,59.8,29.98,ESE,123,0.0,0.0,78,0.00,SCT,,0.00,WeatherDisplay:10.37,2013-08-16 09:16:00,
2013-08-16 02:17:00,66.9,59.8,29.98,ESE,123,0.0,0.0,78,0.00,SCT,,0.00,WeatherDisplay:10.37,2013-08-16 09:17:00,
2013-08-16 02:18:00,66.9,59.5,29.98,ESE,123,0.0,0.0,77,0.00,SCT,,0.00,WeatherDisplay:10.37,2013-08-16 09:18:00,
2013-08-16 02:21:00,66.8,59.7,29.98,ESE,123,0.0,0.0,78,0.00,SCT,,0.00,WeatherDisplay:10.37,2013-08-16 09:21:00,
2013-08-16 02:22:00,66.9,59.8,29.98,ESE,123,0.0,0.0,78,0.00,SCT,,0.00,WeatherDisplay:10.37,2013-08-16 09:22:00,
2013-08-16 02:23:00,66.9,59.8,29.98,ESE,123,0.0,0.0,78,0.00,SCT,,0.00,WeatherDisplay:10.37,2013-08-16 09:23:00,
2013-08-16 02:24:00,66.9,59.8,29.98,ESE,123,0.0,0.0,78,0.00,SCT,,0.00,WeatherDisplay:10.37,2013-08-16 09:24:00,
2013-08-16 02:27:00,66.9,59.8,29.98,ESE,123,0.0,0.0,78,0.00,SCT,,0.00,WeatherDisplay:10.37,2013-08-16 09:27:00,
2013-08-16 02:28:00,66.9,59.8,29.98,ESE,123,0.0,0.0,78,0.00,SCT,,0.00,WeatherDisplay:10.37,2013-08-16 09:28:00,
2013-08-16 02:29:00,66.9,59.8,29.98,ESE,123,0.0,0.0,78,0.00,SCT,,0.00,WeatherDisplay:10.37,2013-08-16 09:29:00,
2013-08-16 02:30:00,66.9,59.8,29.98,ESE,123,0.0,0.0,78,0.00,SCT,,0.00,WeatherDisplay:10.37,2013-08-16 09:30:00,
2013-08-16 02:33:00,67.0,59.9,29.98,ESE,123,0.0,0.0,78,0.00,SCT,,0.00,WeatherDisplay:10.37,2013-08-16 09:33:00,
2013-08-16 02:34:00,67.0,59.5,29.98,ESE,123,0.0,0.0,77,0.00,SCT,,0.00,WeatherDisplay:10.37,2013-08-16 09:34:00,
2013-08-16 02:35:00,67.0,59.5,29.98,ESE,123,0.0,0.0,77,0.00,SCT,,0.00,WeatherDisplay:10.37,2013-08-16 09:35:00,
2013-08-16 02:39:00,67.0,59.9,29.98,ESE,123,0.0,0.0,78,0.00,SCT,,0.00,WeatherDisplay:10.37,2013-08-16 09:39:00,
2013-08-16 02:40:00,67.0,59.9,29.98,ESE,123,0.0,0.0,78,0.00,SCT,,0.00,WeatherDisplay:10.37,2013-08-16 09:40:00,
2013-08-16 02:41:00,67.0,59.9,29.97,ESE,123,0.0,0.0,78,0.00,SCT,,0.00,WeatherDisplay:10.37,2013-08-16 09:41:00,
2013-08-16 02:44:00,67.0,59.9,29.98,ESE,123,0.0,0.0,78,0.00,SCT,,0.00,WeatherDisplay:10.37,2013-08-16 09:44:00,
2013-08-16 02:45:00,67.0,59.9,29.98,ESE,123,0.0,0.0,78,0.00,SCT,,0.00,WeatherDisplay:10.37,2013-08-16 09:45:00,
2013-08-16 02:46:00,67.0,59.9,29.98,ESE,123,0.0,0.0,78,0.00,SCT,,0.00,WeatherDisplay:10.37,2013-08-16 09:46:00,
2013-08-16 02:50:00,67.0,59.5,29.98,ESE,123,0.0,0.0,77,0.00,SCT,,0.00,WeatherDisplay:10.37,2013-08-16 09:50:00,
2013-08-16 02:51:00,67.0,59.9,29.98,ESE,123,0.0,0.0,78,0.00,SCT,,0.00,WeatherDisplay:10.37,2013-08-16 09:51:00,
2013-08-16 02:55:00,67.0,59.9,29.98,ESE,123,0.0,0.0,78,0.00,SCT,,0.00,WeatherDisplay:10.37,2013-08-16 09:55:00,
2013-08-16 02:56:00,67.0,59.9,29.98,ESE,123,0.0,0.0,78,0.00,SCT,,0.00,WeatherDisplay:10.37,2013-08-16 09:56:00,
2013-08-16 02:57:00,67.0,59.9,29.98,ESE,123,0.0,0.0,78,0.00,SCT,,0.00,WeatherDisplay:10.37,2013-08-16 09:57:00,
2013-08-16 02:59:00,67.0,59.9,29.98,SE,126,0.0,0.0,78,0.00,SCT,,0.00,WeatherDisplay:10.37,2013-08-16 09:59:00,
2013-08-16 03:01:00,67.0,59.9,29.97,SE,126,0.0,0.0,78,0.00,SCT,,0.00,WeatherDisplay:10.37,2013-08-16 10:01:00,
2013-08-16 03:04:00,66.9,59.8,29.98,SE,126,0.0,0.0,78,0.00,SCT,,0.00,WeatherDisplay:10.37,2013-08-16 10:04:00,
2013-08-16 03:06:00,66.9,60.2,29.98,SE,126,0.0,0.0,79,0.00,SCT,,0.00,WeatherDisplay:10.37,2013-08-16 10:06:00,
2013-08-16 03:07:00,66.8,59.7,29.98,SE,126,0.0,0.0,78,0.00,SCT,,0.00,WeatherDisplay:10.37,2013-08-16 10:07:00,
2013-08-16 03:08:00,66.8,59.7,29.98,SE,126,0.0,0.0,78,0.00,SCT,,0.00,WeatherDisplay:10.37,2013-08-16 10:08:00,
2013-08-16 03:09:00,66.8,60.1,29.98,SE,126,0.0,0.0,79,0.00,SCT,,0.00,WeatherDisplay:10.37,2013-08-16 10:09:00,
2013-08-16 03:10:00,66.8,60.1,29.98,SE,126,0.0,0.0,79,0.00,SCT,,0.00,WeatherDisplay:10.37,2013-08-16 10:10:00,
2013-08-16 03:12:00,66.8,60.1,29.98,SE,126,0.0,0.0,79,0.00,SCT,,0.00,WeatherDisplay:10.37,2013-08-16 10:12:00,
2013-08-16 03:13:00,66.8,60.1,29.98,SE,126,0.0,0.0,79,0.00,SCT,,0.00,WeatherDisplay:10.37,2013-08-16 10:13:00,
2013-08-16 03:14:00,66.7,60.0,29.98,SE,126,0.0,0.0,79,0.00,SCT,,0.00,WeatherDisplay:10.37,2013-08-16 10:14:00,
2013-08-16 03:15:00,66.7,60.0,29.98,SE,126,0.0,0.0,79,0.00,SCT,,0.00,WeatherDisplay:10.37,2013-08-16 10:15:00,
2013-08-16 03:17:00,66.7,60.0,29.98,SE,126,0.0,0.0,79,0.00,SCT,,0.00,WeatherDisplay:10.37,2013-08-16 10:17:00,
2013-08-16 03:18:00,66.7,60.0,29.98,SE,126,0.0,0.0,79,0.00,SCT,,0.00,WeatherDisplay:10.37,2013-08-16 10:18:00,
2013-08-16 03:19:00,66.6,59.9,29.98,SE,126,0.0,0.0,79,0.00,SCT,,0.00,WeatherDisplay:10.37,2013-08-16 10:19:00,
2013-08-16 03:20:00,66.6,59.9,29.98,SE,126,0.0,0.0,79,0.00,SCT,,0.00,WeatherDisplay:10.37,2013-08-16 10:20:00,
2013-08-16 03:22:00,66.6,59.9,29.98,SE,126,0.0,0.0,79,0.00,SCT,,0.00,WeatherDisplay:10.37,2013-08-16 10:22:00,
2013-08-16 03:24:00,66.6,59.9,29.98,SE,126,0.0,0.0,79,0.00,SCT,,0.00,WeatherDisplay:10.37,2013-08-16 10:24:00,
2013-08-16 03:25:00,66.6,59.9,29.98,SE,126,0.0,0.0,79,0.00,SCT,,0.00,WeatherDisplay:10.37,2013-08-16 10:25:00,
2013-08-16 03:26:00,66.6,59.9,29.98,SE,126,0.0,0.0,79,0.00,SCT,,0.00,WeatherDisplay:10.37,2013-08-16 10:26:00,
2013-08-16 03:28:00,66.6,59.9,29.98,SE,126,0.0,0.0,79,0.00,SCT,,0.00,WeatherDisplay:10.37,2013-08-16 10:28:00,
2013-08-16 03:30:00,66.6,59.9,29.98,SE,126,0.0,0.0,79,0.00,SCT,,0.00,WeatherDisplay:10.37,2013-08-16 10:30:00,
2013-08-16 03:32:00,66.6,59.9,29.98,SE,126,0.0,0.0,79,0.00,SCT,,0.00,WeatherDisplay:10.37,2013-08-16 10:32:00,
2013-08-16 03:34:00,66.6,59.9,29.98,SE,126,0.0,0.0,79,0.00,SCT,,0.00,WeatherDisplay:10.37,2013-08-16 10:34:00,
2013-08-16 03:36:00,66.6,59.9,29.98,SE,126,0.0,0.0,79,0.00,SCT,,0.00,WeatherDisplay:10.37,2013-08-16 10:36:00,
2013-08-16 03:37:00,66.6,59.9,29.98,SE,126,0.0,0.0,79,0.00,SCT,,0.00,WeatherDisplay:10.37,2013-08-16 10:37:00,
2013-08-16 03:38:00,66.6,59.9,29.97,SE,126,0.0,0.0,79,0.00,SCT,,0.00,WeatherDisplay:10.37,2013-08-16 10:38:00,
2013-08-16 03:39:00,66.6,59.9,29.98,SE,126,0.0,0.0,79,0.00,SCT,,0.00,WeatherDisplay:10.37,2013-08-16 10:39:00,
2013-08-16 03:41:00,66.4,59.7,29.98,SE,126,0.0,0.0,79,0.00,SCT,,0.00,WeatherDisplay:10.37,2013-08-16 10:41:00,
2013-08-16 03:42:00,66.4,60.0,29.98,SE,126,0.0,0.0,80,0.00,SCT,,0.00,WeatherDisplay:10.37,2013-08-16 10:42:00,
2013-08-16 03:44:00,66.3,59.6,29.97,SE,126,0.0,0.0,79,0.00,SCT,,0.00,WeatherDisplay:10.37,2013-08-16 10:44:00,
2013-08-16 03:46:00,66.3,59.6,29.97,SE,126,0.0,0.0,79,0.00,SCT,,0.00,WeatherDisplay:10.37,2013-08-16 10:46:00,
2013-08-16 03:48:00,66.4,59.7,29.97,SE,126,0.0,0.0,79,0.00,SCT,,0.00,WeatherDisplay:10.37,2013-08-16 10:48:00,
2013-08-16 03:50:00,66.4,59.7,29.98,SE,126,0.0,0.0,79,0.00,SCT,,0.00,WeatherDisplay:10.37,2013-08-16 10:50:00,
2013-08-16 03:51:00,66.4,59.7,29.97,SE,126,0.0,0.0,79,0.00,SCT,,0.00,WeatherDisplay:10.37,2013-08-16 10:51:00,
2013-08-16 03:53:00,66.4,59.7,29.97,SE,126,0.0,0.0,79,0.00,SCT,,0.00,WeatherDisplay:10.37,2013-08-16 10:53:00,
2013-08-16 03:56:00,66.3,59.6,29.97,SE,126,0.0,0.0,79,0.00,SCT,,0.00,WeatherDisplay:10.37,2013-08-16 10:56:00,
2013-08-16 03:57:00,66.4,59.7,29.97,SE,126,0.0,0.0,79,0.00,SCT,,0.00,WeatherDisplay:10.37,2013-08-16 10:57:00,
2013-08-16 03:59:00,66.3,59.6,29.98,SE,126,0.0,0.0,79,0.00,SCT,,0.00,WeatherDisplay:10.37,2013-08-16 10:59:00,
2013-08-16 04:01:00,66.4,59.7,29.98,SE,126,0.0,0.0,79,0.00,SCT,,0.00,WeatherDisplay:10.37,2013-08-16 11:01:00,
2013-08-16 04:02:00,66.4,59.7,29.98,SE,126,0.0,0.0,79,0.00,SCT,,0.00,WeatherDisplay:10.37,2013-08-16 11:02:00,
2013-08-16 04:04:00,66.3,59.6,29.98,SE,126,0.0,0.0,79,0.00,SCT,,0.00,WeatherDisplay:10.37,2013-08-16 11:04:00,
2013-08-16 04:07:00,66.3,59.6,29.97,SE,126,0.0,0.0,79,0.00,SCT,,0.00,WeatherDisplay:10.37,2013-08-16 11:07:00,
2013-08-16 04:08:00,66.3,59.6,29.97,SE,126,0.0,0.0,79,0.00,SCT,,0.00,WeatherDisplay:10.37,2013-08-16 11:08:00,
2013-08-16 04:09:00,66.3,59.6,29.97,SE,126,0.0,0.0,79,0.00,SCT,,0.00,WeatherDisplay:10.37,2013-08-16 11:09:00,
2013-08-16 04:12:00,66.3,59.6,29.97,SE,126,0.0,0.0,79,0.00,SCT,,0.00,WeatherDisplay:10.37,2013-08-16 11:12:00,
2013-08-16 04:13:00,66.3,59.6,29.97,SE,126,0.0,0.0,79,0.00,SCT,,0.00,WeatherDisplay:10.37,2013-08-16 11:13:00,
2013-08-16 04:14:00,66.3,59.6,29.97,SE,126,0.0,0.0,79,0.00,SCT,,0.00,WeatherDisplay:10.37,2013-08-16 11:14:00,
2013-08-16 04:18:00,66.3,59.6,29.97,SE,126,0.0,0.0,79,0.00,SCT,,0.00,WeatherDisplay:10.37,2013-08-16 11:18:00,
2013-08-16 04:19:00,66.3,59.6,29.97,SE,126,0.0,0.0,79,0.00,SCT,,0.00,WeatherDisplay:10.37,2013-08-16 11:19:00,
2013-08-16 04:23:00,66.2,59.5,29.98,SE,126,0.0,0.0,79,0.00,SCT,,0.00,WeatherDisplay:10.37,2013-08-16 11:23:00,
2013-08-16 04:24:00,66.2,59.5,29.98,SE,126,0.0,0.2,79,0.00,SCT,,0.00,WeatherDisplay:10.37,2013-08-16 11:24:00,
2013-08-16 04:25:00,66.2,59.5,29.98,SE,126,2.3,2.3,79,0.00,SCT,,0.00,WeatherDisplay:10.37,2013-08-16 11:25:00,
2013-08-16 04:28:00,66.2,59.5,29.98,SE,130,1.2,1.2,79,0.00,SCT,,0.00,WeatherDisplay:10.37,2013-08-16 11:28:00,
2013-08-16 04:29:00,66.2,59.5,29.98,WSW,253,1.2,1.2,79,0.00,SCT,,0.00,WeatherDisplay:10.37,2013-08-16 11:29:00,
2013-08-16 04:30:00,66.2,59.5,29.98,WSW,255,1.2,0.0,79,0.00,SCT,,0.00,WeatherDisplay:10.37,2013-08-16 11:30:00,
2013-08-16 04:31:00,66.2,59.5,29.98,WSW,255,0.0,0.0,79,0.00,SCT,,0.00,WeatherDisplay:10.37,2013-08-16 11:31:00,
2013-08-16 04:33:00,66.2,59.5,29.98,WSW,255,0.0,0.0,79,0.00,SCT,,0.00,WeatherDisplay:10.37,2013-08-16 11:33:00,
2013-08-16 04:35:00,66.2,59.5,29.98,WSW,255,0.0,0.0,79,0.00,SCT,,0.00,WeatherDisplay:10.37,2013-08-16 11:35:00,
2013-08-16 04:36:00,66.2,59.5,29.97,WSW,255,1.2,1.2,79,0.00,SCT,,0.00,WeatherDisplay:10.37,2013-08-16 11:36:00,
2013-08-16 04:39:00,66.2,59.5,29.98,ESE,114,1.2,0.0,79,0.00,SCT,,0.00,WeatherDisplay:10.37,2013-08-16 11:39:00,
2013-08-16 04:40:00,66.2,59.5,29.98,ESE,114,0.0,0.0,79,0.00,SCT,,0.00,WeatherDisplay:10.37,2013-08-16 11:40:00,
2013-08-16 04:41:00,66.2,59.5,29.98,ESE,117,2.0,2.0,79,0.00,SCT,,0.00,WeatherDisplay:10.37,2013-08-16 11:41:00,
2013-08-16 04:42:00,66.2,59.5,29.98,ESE,118,2.3,2.3,79,0.00,SCT,,0.00,WeatherDisplay:10.37,2013-08-16 11:42:00,
2013-08-16 04:45:00,66.1,59.4,29.98,ESE,118,0.0,0.0,79,0.00,SCT,,0.00,WeatherDisplay:10.37,2013-08-16 11:45:00,
2013-08-16 04:46:00,66.1,59.4,29.98,ESE,118,0.0,0.0,79,0.00,SCT,,0.00,WeatherDisplay:10.37,2013-08-16 11:46:00,
2013-08-16 04:47:00,66.1,59.4,29.98,ESE,118,0.0,0.0,79,0.00,SCT,,0.00,WeatherDisplay:10.37,2013-08-16 11:47:00,
2013-08-16 04:48:00,66.1,59.7,29.97,ESE,118,0.0,0.0,80,0.00,SCT,,0.00,WeatherDisplay:10.37,2013-08-16 11:48:00,
2013-08-16 04:50:00,66.1,59.4,29.98,ESE,118,0.0,0.0,79,0.00,SCT,,0.00,WeatherDisplay:10.37,2013-08-16 11:50:00,
2013-08-16 04:51:00,66.1,59.7,29.98,ESE,118,0.0,0.0,80,0.00,SCT,,0.00,WeatherDisplay:10.37,2013-08-16 11:51:00,
2013-08-16 04:52:00,66.1,59.7,29.98,ESE,118,0.0,0.0,80,0.00,SCT,,0.00,WeatherDisplay:10.37,2013-08-16 11:52:00,
2013-08-16 04:53:00,66.1,59.4,29.98,ESE,118,0.0,0.0,79,0.00,SCT,,0.00,WeatherDisplay:10.37,2013-08-16 11:53:00,
2013-08-16 04:56:00,66.1,59.7,29.98,ESE,118,0.0,0.0,80,0.00,SCT,,0.00,WeatherDisplay:10.37,2013-08-16 11:56:00,
2013-08-16 04:57:00,66.1,59.7,29.98,ESE,118,0.0,0.0,80,0.00,SCT,,0.00,WeatherDisplay:10.37,2013-08-16 11:57:00,
2013-08-16 04:58:00,66.0,59.3,29.98,ESE,118,1.0,0.0,79,0.00,SCT,,0.00,WeatherDisplay:10.37,2013-08-16 11:58:00,
2013-08-16 05:02:00,66.0,59.7,29.98,ESE,118,1.2,1.2,80,0.00,SCT,,0.00,WeatherDisplay:10.37,2013-08-16 12:02:00,
2013-08-16 05:03:00,66.0,59.7,29.98,ESE,118,1.2,1.2,80,0.00,SCT,,0.00,WeatherDisplay:10.37,2013-08-16 12:03:00,
2013-08-16 05:04:00,65.9,59.2,29.98,ESE,118,1.2,0.0,79,0.00,SCT,,0.00,WeatherDisplay:10.37,2013-08-16 12:04:00,
2013-08-16 05:07:00,65.9,59.6,29.98,ESE,118,0.0,0.0,80,0.00,SCT,,0.00,WeatherDisplay:10.37,2013-08-16 12:07:00,
2013-08-16 05:08:00,65.9,59.6,29.98,ESE,118,0.0,0.0,80,0.00,SCT,,0.00,WeatherDisplay:10.37,2013-08-16 12:08:00,
2013-08-16 05:09:00,65.8,59.5,29.98,ESE,118,0.0,0.0,80,0.00,SCT,,0.00,WeatherDisplay:10.37,2013-08-16 12:09:00,
2013-08-16 05:10:00,65.8,59.5,29.98,ESE,118,0.0,0.0,80,0.00,SCT,,0.00,WeatherDisplay:10.37,2013-08-16 12:10:00,
2013-08-16 05:12:00,65.8,59.5,29.98,ESE,118,0.0,0.0,80,0.00,SCT,,0.00,WeatherDisplay:10.37,2013-08-16 12:12:00,
2013-08-16 05:13:00,65.8,59.5,29.97,ESE,118,0.0,0.0,80,0.00,SCT,,0.00,WeatherDisplay:10.37,2013-08-16 12:13:00,
2013-08-16 05:15:00,65.8,59.1,29.98,ESE,118,0.0,0.0,79,0.00,SCT,,0.00,WeatherDisplay:10.37,2013-08-16 12:15:00,
2013-08-16 05:18:00,65.7,59.0,29.98,ESE,118,0.0,0.0,79,0.00,SCT,,0.00,WeatherDisplay:10.37,2013-08-16 12:18:00,
2013-08-16 05:19:00,65.7,59.0,29.98,ESE,118,0.0,0.0,79,0.00,SCT,,0.00,WeatherDisplay:10.37,2013-08-16 12:19:00,
2013-08-16 05:20:00,65.7,59.0,29.98,ESE,118,0.0,0.0,79,0.00,SCT,,0.00,WeatherDisplay:10.37,2013-08-16 12:20:00,
2013-08-16 05:21:00,65.7,59.0,29.97,ESE,118,0.0,0.0,79,0.00,SCT,,0.00,WeatherDisplay:10.37,2013-08-16 12:21:00,
2013-08-16 05:23:00,65.7,59.0,29.98,ESE,118,0.0,0.0,79,0.00,SCT,,0.00,WeatherDisplay:10.37,2013-08-16 12:23:00,
2013-08-16 05:24:00,65.7,59.0,29.98,ESE,118,0.0,0.0,79,0.00,SCT,,0.00,WeatherDisplay:10.37,2013-08-16 12:24:00,
2013-08-16 05:26:00,65.6,58.9,29.98,ESE,118,0.0,0.0,79,0.00,SCT,,0.00,WeatherDisplay:10.37,2013-08-16 12:26:00,
2013-08-16 05:27:00,65.6,58.9,29.98,ESE,118,1.2,1.2,79,0.00,SCT,,0.00,WeatherDisplay:10.37,2013-08-16 12:27:00,
2013-08-16 05:29:00,65.6,59.3,29.97,ESE,118,0.0,0.0,80,0.00,SCT,,0.00,WeatherDisplay:10.37,2013-08-16 12:29:00,
2013-08-16 05:30:00,65.5,59.2,29.98,ESE,118,0.0,0.0,80,0.00,SCT,,0.00,WeatherDisplay:10.37,2013-08-16 12:30:00,
2013-08-16 05:31:00,65.5,59.2,29.98,ESE,118,0.0,0.0,80,0.00,SCT,,0.00,WeatherDisplay:10.37,2013-08-16 12:31:00,
2013-08-16 05:32:00,65.5,59.2,29.98,ESE,118,0.0,0.0,80,0.00,SCT,,0.00,WeatherDisplay:10.37,2013-08-16 12:32:00,
2013-08-16 05:35:00,65.5,59.2,29.98,ESE,118,0.0,0.0,80,0.00,SCT,,0.00,WeatherDisplay:10.37,2013-08-16 12:35:00,
2013-08-16 05:36:00,65.4,59.1,29.98,ESE,118,0.0,0.0,80,0.00,SCT,,0.00,WeatherDisplay:10.37,2013-08-16 12:36:00,
2013-08-16 05:37:00,65.5,59.2,29.98,ESE,118,0.0,0.0,80,0.00,SCT,,0.00,WeatherDisplay:10.37,2013-08-16 12:37:00,
2013-08-16 05:39:00,65.4,59.1,29.98,ESE,118,0.0,0.0,80,0.00,SCT,,0.00,WeatherDisplay:10.37,2013-08-16 12:39:00,
2013-08-16 05:40:00,65.4,59.1,29.98,ESE,118,0.0,0.0,80,0.00,SCT,,0.00,WeatherDisplay:10.37,2013-08-16 12:40:00,
2013-08-16 05:42:00,65.5,59.5,29.98,ESE,118,0.0,0.0,81,0.00,SCT,,0.00,WeatherDisplay:10.37,2013-08-16 12:42:00,
2013-08-16 05:43:00,65.4,59.1,29.98,ESE,118,0.0,0.0,80,0.00,SCT,,0.00,WeatherDisplay:10.37,2013-08-16 12:43:00,
2013-08-16 05:44:00,65.4,59.1,29.98,ESE,118,1.2,0.0,80,0.00,SCT,,0.00,WeatherDisplay:10.37,2013-08-16 12:44:00,
2013-08-16 05:46:00,65.4,59.1,29.98,ESE,118,0.0,0.0,80,0.00,SCT,,0.00,WeatherDisplay:10.37,2013-08-16 12:46:00,
2013-08-16 05:47:00,65.4,59.1,29.98,ESE,118,0.0,0.0,80,0.00,SCT,,0.00,WeatherDisplay:10.37,2013-08-16 12:47:00,
2013-08-16 05:48:00,65.4,59.1,29.98,ESE,118,0.0,0.0,80,0.00,SCT,,0.00,WeatherDisplay:10.37,2013-08-16 12:48:00,
2013-08-16 05:49:00,65.4,59.1,29.98,ESE,118,0.0,0.0,80,0.00,SCT,,0.00,WeatherDisplay:10.37,2013-08-16 12:49:00,
2013-08-16 05:51:00,65.4,59.1,29.97,ESE,118,0.0,0.0,80,0.00,SCT,,0.00,WeatherDisplay:10.37,2013-08-16 12:51:00,
2013-08-16 05:53:00,65.4,59.1,29.98,ENE,70,1.2,1.2,80,0.00,SCT,,0.00,WeatherDisplay:10.37,2013-08-16 12:53:00,
2013-08-16 05:54:00,65.4,59.1,29.98,ENE,66,1.2,1.2,80,0.00,SCT,,0.00,WeatherDisplay:10.37,2013-08-16 12:54:00,
2013-08-16 05:56:00,65.3,59.0,29.98,ENE,66,0.0,0.0,80,0.00,SCT,,0.00,WeatherDisplay:10.37,2013-08-16 12:56:00,
2013-08-16 05:58:00,65.2,59.2,29.98,ENE,66,0.0,0.0,81,0.00,SCT,,0.00,WeatherDisplay:10.37,2013-08-16 12:58:00,
2013-08-16 05:59:00,65.2,59.2,29.98,ENE,66,0.0,0.0,81,0.00,SCT,,0.00,WeatherDisplay:10.37,2013-08-16 12:59:00,
2013-08-16 06:00:00,65.2,59.2,29.98,ENE,66,0.0,0.0,81,0.00,SCT,,0.00,WeatherDisplay:10.37,2013-08-16 13:00:00,
2013-08-16 06:01:00,65.2,59.2,29.98,ENE,66,0.0,0.0,81,0.00,SCT,,0.00,WeatherDisplay:10.37,2013-08-16 13:01:00,
2013-08-16 06:04:00,65.2,59.2,29.98,ENE,66,0.0,0.0,81,0.00,SCT,,0.00,WeatherDisplay:10.37,2013-08-16 13:04:00,
2013-08-16 06:05:00,65.1,59.1,29.98,ENE,66,0.0,0.0,81,0.00,SCT,,0.00,WeatherDisplay:10.37,2013-08-16 13:05:00,
2013-08-16 06:06:00,65.0,59.4,29.98,ENE,66,0.0,0.0,82,0.00,SCT,,0.00,WeatherDisplay:10.37,2013-08-16 13:06:00,
2013-08-16 06:10:00,64.9,59.3,29.98,ENE,66,0.0,0.0,82,0.00,SCT,,0.00,WeatherDisplay:10.37,2013-08-16 13:10:00,
2013-08-16 06:11:00,64.9,59.3,29.98,ENE,66,0.0,0.0,82,0.00,SCT,,0.00,WeatherDisplay:10.37,2013-08-16 13:11:00,
2013-08-16 06:15:00,64.9,59.3,29.98,ENE,66,0.0,0.0,82,0.00,SCT,,0.00,WeatherDisplay:10.37,2013-08-16 13:15:00,
2013-08-16 06:16:00,64.9,59.3,29.98,ENE,66,0.0,0.0,82,0.00,SCT,,0.00,WeatherDisplay:10.37,2013-08-16 13:16:00,
2013-08-16 06:17:00,64.9,59.3,29.98,ENE,66,0.0,0.0,82,0.00,SCT,,0.00,WeatherDisplay:10.37,2013-08-16 13:17:00,
2013-08-16 06:20:00,64.9,59.3,29.99,ENE,66,0.0,0.0,82,0.00,SCT,,0.00,WeatherDisplay:10.37,2013-08-16 13:20:00,
2013-08-16 06:21:00,64.9,59.3,29.99,ENE,66,0.0,0.0,82,0.00,SCT,,0.00,WeatherDisplay:10.37,2013-08-16 13:21:00,
2013-08-16 06:22:00,64.8,58.8,29.99,ENE,66,0.0,0.0,81,0.00,SCT,,0.00,WeatherDisplay:10.37,2013-08-16 13:22:00,
2013-08-16 06:26:00,64.8,59.2,29.99,ENE,66,0.0,0.0,82,0.00,SCT,,0.00,WeatherDisplay:10.37,2013-08-16 13:26:00,
2013-08-16 06:27:00,64.8,58.8,29.99,ENE,66,0.0,0.0,81,0.00,SCT,,0.00,WeatherDisplay:10.37,2013-08-16 13:27:00,
2013-08-16 06:28:00,64.8,58.8,29.99,ENE,66,0.0,0.0,81,0.00,SCT,,0.00,WeatherDisplay:10.37,2013-08-16 13:28:00,
2013-08-16 06:31:00,64.8,58.8,29.99,ENE,66,0.0,0.0,81,0.00,SCT,,0.00,WeatherDisplay:10.37,2013-08-16 13:31:00,
2013-08-16 06:32:00,64.7,58.7,29.99,ENE,66,0.0,0.0,81,0.00,SCT,,0.00,WeatherDisplay:10.37,2013-08-16 13:32:00,
2013-08-16 06:33:00,64.7,58.7,29.99,ENE,66,0.0,0.0,81,0.00,SCT,,0.00,WeatherDisplay:10.37,2013-08-16 13:33:00,
2013-08-16 06:34:00,64.7,58.7,29.99,ENE,66,0.0,0.0,81,0.00,SCT,,0.00,WeatherDisplay:10.37,2013-08-16 13:34:00,
2013-08-16 06:36:00,64.6,58.6,29.99,ENE,66,0.0,0.0,81,0.00,SCT,,0.00,WeatherDisplay:10.37,2013-08-16 13:36:00,
2013-08-16 06:38:00,64.6,58.6,29.99,ENE,66,0.0,0.0,81,0.00,SCT,,0.00,WeatherDisplay:10.37,2013-08-16 13:38:00,
2013-08-16 06:40:00,64.6,58.6,29.99,ENE,66,0.0,0.0,81,0.00,SCT,,0.00,WeatherDisplay:10.37,2013-08-16 13:40:00,
2013-08-16 06:41:00,64.6,58.6,29.99,ENE,66,0.0,0.0,81,0.00,SCT,,0.00,WeatherDisplay:10.37,2013-08-16 13:41:00,
2013-08-16 06:43:00,64.6,58.6,29.99,ENE,66,0.0,0.0,81,0.00,SCT,,0.00,WeatherDisplay:10.37,2013-08-16 13:43:00,
2013-08-16 06:44:00,64.7,58.7,29.99,ENE,66,0.0,0.0,81,0.00,SCT,,0.00,WeatherDisplay:10.37,2013-08-16 13:44:00,
2013-08-16 06:46:00,64.7,58.7,29.99,ENE,66,0.0,0.0,81,0.00,SCT,,0.00,WeatherDisplay:10.37,2013-08-16 13:46:00,
2013-08-16 06:49:00,64.7,59.1,29.99,ENE,66,0.0,0.0,82,0.00,SCT,,0.00,WeatherDisplay:10.37,2013-08-16 13:49:00,
2013-08-16 06:50:00,64.7,59.1,29.99,ENE,66,0.0,0.0,82,0.00,SCT,,0.00,WeatherDisplay:10.37,2013-08-16 13:50:00,
2013-08-16 06:51:00,64.8,58.8,29.99,ENE,66,0.0,0.0,81,0.00,SCT,,0.00,WeatherDisplay:10.37,2013-08-16 13:51:00,
2013-08-16 06:54:00,64.9,59.3,29.99,ENE,66,0.0,0.0,82,0.00,SCT,,0.00,WeatherDisplay:10.37,2013-08-16 13:54:00,
2013-08-16 06:55:00,64.9,59.3,29.99,ENE,66,0.0,0.0,82,0.00,SCT,,0.00,WeatherDisplay:10.37,2013-08-16 13:55:00,
2013-08-16 06:57:00,64.9,59.3,29.99,ENE,66,0.0,0.0,82,0.00,SCT,,0.00,WeatherDisplay:10.37,2013-08-16 13:57:00,
2013-08-16 07:00:00,65.0,59.4,29.99,ENE,66,0.0,0.0,82,0.00,SCT,,0.00,WeatherDisplay:10.37,2013-08-16 14:00:00,
2013-08-16 07:02:00,65.0,59.4,29.99,ENE,78,0.0,0.0,82,0.00,SCT,,0.00,WeatherDisplay:10.37,2013-08-16 14:02:00,
2013-08-16 07:03:00,65.0,59.4,29.99,ENE,78,0.0,0.0,82,0.00,SCT,,0.00,WeatherDisplay:10.37,2013-08-16 14:03:00,
2013-08-16 07:05:00,65.0,59.4,29.99,ENE,78,0.0,0.0,82,0.00,SCT,,0.00,WeatherDisplay:10.37,2013-08-16 14:05:00,
2013-08-16 07:06:00,65.0,59.4,29.99,ENE,78,0.0,0.0,82,0.00,SCT,,0.00,WeatherDisplay:10.37,2013-08-16 14:06:00,
2013-08-16 07:07:00,65.0,59.4,29.99,ENE,78,0.0,0.0,82,0.00,SCT,,0.00,WeatherDisplay:10.37,2013-08-16 14:07:00,
2013-08-16 07:09:00,65.0,59.4,29.99,ENE,78,0.0,0.0,82,0.00,SCT,,0.00,WeatherDisplay:10.37,2013-08-16 14:09:00,
2013-08-16 07:11:00,65.1,59.1,29.99,ENE,78,0.0,0.1,81,0.00,SCT,,0.00,WeatherDisplay:10.37,2013-08-16 14:11:00,
2013-08-16 07:12:00,65.1,59.5,29.99,East,100,1.2,1.2,82,0.00,SCT,,0.00,WeatherDisplay:10.37,2013-08-16 14:12:00,
2013-08-16 07:13:00,65.1,59.5,29.99,East,100,1.2,1.2,82,0.00,SCT,,0.00,WeatherDisplay:10.37,2013-08-16 14:13:00,
2013-08-16 07:14:00,65.1,59.5,29.99,SSW,196,1.2,1.2,82,0.00,SCT,,0.00,WeatherDisplay:10.37,2013-08-16 14:14:00,
2013-08-16 07:17:00,65.1,59.5,29.99,SSW,195,0.0,0.0,82,0.00,SCT,,0.00,WeatherDisplay:10.37,2013-08-16 14:17:00,
2013-08-16 07:18:00,65.1,59.1,29.99,SSW,195,0.0,0.0,81,0.00,SCT,,0.00,WeatherDisplay:10.37,2013-08-16 14:18:00,
2013-08-16 07:19:00,65.1,59.5,29.99,SE,141,0.0,0.0,82,0.00,SCT,,0.00,WeatherDisplay:10.37,2013-08-16 14:19:00,
2013-08-16 07:20:00,65.2,59.2,30.00,South,175,0.0,0.4,81,0.00,SCT,,0.00,WeatherDisplay:10.37,2013-08-16 14:20:00,
2013-08-16 07:22:00,65.2,59.6,29.99,South,191,1.2,1.2,82,0.00,SCT,,0.00,WeatherDisplay:10.37,2013-08-16 14:22:00,
2013-08-16 07:23:00,65.2,59.6,29.99,South,191,1.2,1.2,82,0.00,SCT,,0.00,WeatherDisplay:10.37,2013-08-16 14:23:00,
2013-08-16 07:24:00,65.3,59.7,29.99,South,191,1.2,0.0,82,0.00,SCT,,0.00,WeatherDisplay:10.37,2013-08-16 14:24:00,
2013-08-16 07:25:00,65.3,59.7,29.99,ESE,106,2.3,2.3,82,0.00,SCT,,0.00,WeatherDisplay:10.37,2013-08-16 14:25:00,
2013-08-16 07:28:00,65.5,59.9,29.99,SE,137,3.5,3.5,82,0.00,SCT,,0.00,WeatherDisplay:10.37,2013-08-16 14:28:00,
2013-08-16 07:29:00,65.5,59.9,29.99,SE,137,0.0,0.0,82,0.00,SCT,,0.00,WeatherDisplay:10.37,2013-08-16 14:29:00,
2013-08-16 07:30:00,65.5,59.9,29.99,SE,137,0.0,0.0,82,0.00,SCT,,0.00,WeatherDisplay:10.37,2013-08-16 14:30:00,
2013-08-16 07:33:00,65.8,60.2,29.99,ESE,102,3.5,3.5,82,0.00,SCT,,0.00,WeatherDisplay:10.37,2013-08-16 14:33:00,
2013-08-16 07:34:00,65.9,60.2,29.99,ESE,103,2.3,2.3,82,0.00,SCT,,0.00,WeatherDisplay:10.37,2013-08-16 14:34:00,
2013-08-16 07:35:00,65.9,59.9,29.99,ESE,103,0.0,0.1,81,0.00,SCT,,0.00,WeatherDisplay:10.37,2013-08-16 14:35:00,
2013-08-16 07:36:00,65.9,59.9,29.99,ESE,103,0.0,0.1,81,0.00,SCT,,0.00,WeatherDisplay:10.37,2013-08-16 14:36:00,
2013-08-16 07:38:00,66.0,60.0,29.99,ESE,103,1.0,0.0,81,0.00,SCT,,0.00,WeatherDisplay:10.37,2013-08-16 14:38:00,
2013-08-16 07:39:00,66.1,60.1,29.99,ESE,103,2.3,2.3,81,0.00,SCT,,0.00,WeatherDisplay:10.37,2013-08-16 14:39:00,
2013-08-16 07:41:00,66.2,60.2,29.99,ESE,103,1.0,0.0,81,0.00,SCT,,0.00,WeatherDisplay:10.37,2013-08-16 14:41:00,
2013-08-16 07:42:00,66.2,60.2,29.99,ESE,103,1.2,1.2,81,0.00,SCT,,0.00,WeatherDisplay:10.37,2013-08-16 14:42:00,
2013-08-16 07:44:00,66.2,60.2,29.99,ESE,103,1.2,0.0,81,0.00,SCT,,0.00,WeatherDisplay:10.37,2013-08-16 14:44:00,
2013-08-16 07:46:00,66.2,60.2,29.99,ESE,105,5.8,5.8,81,0.00,SCT,,0.00,WeatherDisplay:10.37,2013-08-16 14:46:00,
2013-08-16 07:47:00,66.2,60.2,29.99,SE,129,5.8,5.8,81,0.00,SCT,,0.00,WeatherDisplay:10.37,2013-08-16 14:47:00,
2013-08-16 07:49:00,66.0,60.0,29.99,ESE,105,2.3,2.3,81,0.00,SCT,,0.00,WeatherDisplay:10.37,2013-08-16 14:49:00,
2013-08-16 07:50:00,66.0,60.0,29.99,ESE,102,1.0,6.0,81,0.00,SCT,,0.00,WeatherDisplay:10.37,2013-08-16 14:50:00,
2013-08-16 07:51:00,66.0,60.3,29.99,ESE,111,3.5,3.5,82,0.00,SCT,,0.00,WeatherDisplay:10.37,2013-08-16 14:51:00,
2013-08-16 07:52:00,66.0,60.3,29.99,NE,46,3.5,3.5,82,0.00,SCT,,0.00,WeatherDisplay:10.37,2013-08-16 14:52:00,
2013-08-16 07:53:00,66.0,60.3,29.99,NE,46,3.5,3.5,82,0.00,SCT,,0.00,WeatherDisplay:10.37,2013-08-16 14:53:00,
2013-08-16 07:55:00,66.0,60.3,30.00,SE,134,2.3,2.3,82,0.00,SCT,,0.00,WeatherDisplay:10.37,2013-08-16 14:55:00,
2013-08-16 07:56:00,66.1,60.4,30.00,ENE,76,1.2,1.2,82,0.00,SCT,,0.00,WeatherDisplay:10.37,2013-08-16 14:56:00,
2013-08-16 07:57:00,66.1,60.4,30.00,ENE,70,2.3,2.3,82,0.00,SCT,,0.00,WeatherDisplay:10.37,2013-08-16 14:57:00,
2013-08-16 07:58:00,66.1,60.4,30.00,ENE,69,3.5,3.5,82,0.00,SCT,,0.00,WeatherDisplay:10.37,2013-08-16 14:58:00,
2013-08-16 08:01:00,66.2,60.5,30.00,ENE,69,0.0,0.0,82,0.00,SCT,,0.00,WeatherDisplay:10.37,2013-08-16 15:01:00,
2013-08-16 08:03:00,66.4,60.4,30.00,ESE,122,4.6,4.6,81,0.00,SCT,,0.00,WeatherDisplay:10.37,2013-08-16 15:03:00,
2013-08-16 08:04:00,66.4,60.4,30.00,ESE,122,3.5,0.0,81,0.00,SCT,,0.00,WeatherDisplay:10.37,2013-08-16 15:04:00,
2013-08-16 08:06:00,66.5,60.5,30.00,ESE,121,2.3,2.3,81,0.00,SCT,,0.00,WeatherDisplay:10.37,2013-08-16 15:06:00,
2013-08-16 08:08:00,66.8,60.8,30.00,ESE,108,3.5,3.5,81,0.00,SCT,,0.00,WeatherDisplay:10.37,2013-08-16 15:08:00,
2013-08-16 08:09:00,66.8,60.4,30.00,ESE,112,3.5,3.5,80,0.00,SCT,,0.00,WeatherDisplay:10.37,2013-08-16 15:09:00,
2013-08-16 08:10:00,66.9,60.5,30.00,ESE,119,1.0,4.0,80,0.00,SCT,,0.00,WeatherDisplay:10.37,2013-08-16 15:10:00,
2013-08-16 08:11:00,67.4,61.0,30.00,ESE,118,3.5,3.5,80,0.00,SCT,,0.00,WeatherDisplay:10.37,2013-08-16 15:11:00,
2013-08-16 08:13:00,68.0,60.9,30.00,SE,134,1.2,1.2,78,0.00,SCT,,0.00,WeatherDisplay:10.37,2013-08-16 15:13:00,
2013-08-16 08:14:00,68.2,61.1,30.00,SE,135,3.5,3.5,78,0.00,SCT,,0.00,WeatherDisplay:10.37,2013-08-16 15:14:00,
2013-08-16 08:15:00,68.2,61.1,30.00,ESE,114,0.0,4.0,78,0.00,SCT,,0.00,WeatherDisplay:10.37,2013-08-16 15:15:00,
2013-08-16 08:17:00,68.6,60.7,30.00,SSE,150,2.3,2.3,76,0.00,SCT,,0.00,WeatherDisplay:10.37,2013-08-16 15:17:00,
2013-08-16 08:20:00,69.1,61.2,30.00,SE,124,4.6,4.6,76,0.00,SCT,,0.00,WeatherDisplay:10.37,2013-08-16 15:20:00,
2013-08-16 08:21:00,69.3,61.0,30.00,ESE,119,7.0,7.0,75,0.00,SCT,,0.00,WeatherDisplay:10.37,2013-08-16 15:21:00,
2013-08-16 08:22:00,69.6,60.9,30.00,SE,133,6.9,6.9,74,0.00,SCT,,0.00,WeatherDisplay:10.37,2013-08-16 15:22:00,
2013-08-16 08:25:00,70.3,61.2,30.00,East,97,2.3,2.3,73,0.00,SCT,,0.00,WeatherDisplay:10.37,2013-08-16 15:25:00,
2013-08-16 08:26:00,70.4,61.3,30.00,East,96,2.3,2.3,73,0.00,SCT,,0.00,WeatherDisplay:10.37,2013-08-16 15:26:00,
2013-08-16 08:27:00,70.6,61.1,30.00,WSW,241,0.0,0.1,72,0.00,SCT,,0.00,WeatherDisplay:10.37,2013-08-16 15:27:00,
2013-08-16 08:30:00,70.8,60.5,30.00,SSW,199,1.2,1.2,70,0.00,SCT,,0.00,WeatherDisplay:10.37,2013-08-16 15:30:00,
2013-08-16 08:31:00,70.8,60.9,30.00,South,191,1.2,1.2,71,0.00,SCT,,0.00,WeatherDisplay:10.37,2013-08-16 15:31:00,
2013-08-16 08:32:00,70.8,60.9,30.00,SSE,151,2.3,2.3,71,0.00,SCT,,0.00,WeatherDisplay:10.37,2013-08-16 15:32:00,
2013-08-16 08:36:00,71.3,61.4,30.00,East,95,1.2,1.2,71,0.00,SCT,,0.00,WeatherDisplay:10.37,2013-08-16 15:36:00,
2013-08-16 08:37:00,71.6,60.9,30.00,SE,129,2.3,2.3,69,0.00,SCT,,0.00,WeatherDisplay:10.37,2013-08-16 15:37:00,
2013-08-16 08:38:00,71.6,60.9,30.00,SE,129,2.3,2.3,69,0.00,SCT,,0.00,WeatherDisplay:10.37,2013-08-16 15:38:00,
2013-08-16 08:41:00,71.8,60.7,30.00,South,182,1.2,1.2,68,0.00,SCT,,0.00,WeatherDisplay:10.37,2013-08-16 15:41:00,
2013-08-16 08:42:00,71.7,60.6,30.00,ESE,107,1.2,1.2,68,0.00,SCT,,0.00,WeatherDisplay:10.37,2013-08-16 15:42:00,
2013-08-16 08:43:00,71.7,61.0,30.00,ESE,107,2.3,0.0,69,0.00,SCT,,0.00,WeatherDisplay:10.37,2013-08-16 15:43:00,
2013-08-16 08:45:00,71.9,60.8,30.00,SSW,203,0.0,0.0,68,0.00,SCT,,0.00,WeatherDisplay:10.37,2013-08-16 15:45:00,
2013-08-16 08:47:00,72.1,60.5,30.00,WSW,237,1.2,1.2,67,0.00,SCT,,0.00,WeatherDisplay:10.37,2013-08-16 15:47:00,
2013-08-16 08:48:00,72.0,60.9,30.00,WSW,237,0.0,0.0,68,0.00,SCT,,0.00,WeatherDisplay:10.37,2013-08-16 15:48:00,
2013-08-16 08:50:00,71.9,60.8,30.00,WSW,237,0.0,0.0,68,0.00,SCT,,0.00,WeatherDisplay:10.37,2013-08-16 15:50:00,
2013-08-16 08:52:00,71.8,60.7,30.00,South,190,1.2,1.2,68,0.00,SCT,,0.00,WeatherDisplay:10.37,2013-08-16 15:52:00,
2013-08-16 08:53:00,71.8,60.7,30.00,South,190,1.2,0.0,68,0.00,SCT,,0.00,WeatherDisplay:10.37,2013-08-16 15:53:00,
2013-08-16 08:54:00,71.9,61.2,30.00,SE,124,0.0,0.5,69,0.00,SCT,,0.00,WeatherDisplay:10.37,2013-08-16 15:54:00,
2013-08-16 08:55:00,72.1,61.0,30.00,South,191,1.2,0.0,68,0.00,SCT,,0.00,WeatherDisplay:10.37,2013-08-16 15:55:00,
2013-08-16 08:58:00,72.4,60.8,30.00,ESE,120,0.0,0.0,67,0.00,SCT,,0.00,WeatherDisplay:10.37,2013-08-16 15:58:00,
2013-08-16 08:59:00,72.4,61.2,30.00,ESE,120,0.0,0.0,68,0.00,SCT,,0.00,WeatherDisplay:10.37,2013-08-16 15:59:00,
2013-08-16 09:00:00,72.7,61.1,30.00,SSW,205,3.0,3.0,67,0.00,SCT,,0.00,WeatherDisplay:10.37,2013-08-16 16:00:00,
2013-08-16 09:01:00,72.7,61.1,30.00,South,176,1.0,1.0,67,0.00,SCT,,0.00,WeatherDisplay:10.37,2013-08-16 16:01:00,
2013-08-16 09:02:00,72.9,60.9,30.00,SSW,192,3.5,3.5,66,0.00,SCT,,0.00,WeatherDisplay:10.37,2013-08-16 16:02:00,
2013-08-16 09:04:00,73.2,61.2,30.00,ESE,119,1.2,0.0,66,0.00,SCT,,0.00,WeatherDisplay:10.37,2013-08-16 16:04:00,
2013-08-16 09:06:00,73.6,61.1,30.00,SE,130,3.0,3.0,65,0.00,SCT,,0.00,WeatherDisplay:10.37,2013-08-16 16:06:00,
2013-08-16 09:07:00,73.9,61.0,30.00,SE,125,6.9,6.9,64,0.00,SCT,,0.00,WeatherDisplay:10.37,2013-08-16 16:07:00,
2013-08-16 09:09:00,74.1,61.1,30.00,SE,135,1.0,0.0,64,0.00,SCT,,0.00,WeatherDisplay:10.37,2013-08-16 16:09:00,
2013-08-16 09:10:00,74.1,61.1,30.00,SE,131,0.0,7.0,64,0.00,SCT,,0.00,WeatherDisplay:10.37,2013-08-16 16:10:00,
2013-08-16 09:11:00,73.9,61.0,30.00,South,185,1.2,0.0,64,0.00,SCT,,0.00,WeatherDisplay:10.37,2013-08-16 16:11:00,
2013-08-16 09:12:00,73.9,61.0,30.00,SSW,212,1.0,0.0,64,0.00,SCT,,0.00,WeatherDisplay:10.37,2013-08-16 16:12:00,
2013-08-16 09:15:00,73.9,61.4,30.00,SW,214,0.0,0.3,65,0.00,SCT,,0.00,WeatherDisplay:10.37,2013-08-16 16:15:00,
2013-08-16 09:16:00,74.2,61.7,30.00,SE,127,2.3,2.3,65,0.00,SCT,,0.00,WeatherDisplay:10.37,2013-08-16 16:16:00,
2013-08-16 09:18:00,74.3,60.9,30.00,SSW,205,1.2,1.2,63,0.00,SCT,,0.00,WeatherDisplay:10.37,2013-08-16 16:18:00,
2013-08-16 09:19:00,74.4,61.0,30.00,South,187,2.3,2.3,63,0.00,SCT,,0.00,WeatherDisplay:10.37,2013-08-16 16:19:00,
2013-08-16 09:20:00,74.6,61.6,30.00,South,187,1.2,0.0,64,0.00,SCT,,0.00,WeatherDisplay:10.37,2013-08-16 16:20:00,
2013-08-16 09:22:00,74.9,61.5,30.00,South,186,1.0,1.0,63,0.00,SCT,,0.00,WeatherDisplay:10.37,2013-08-16 16:22:00,
2013-08-16 09:23:00,74.9,61.5,30.00,South,188,0.0,0.2,63,0.00,SCT,,0.00,WeatherDisplay:10.37,2013-08-16 16:23:00,
2013-08-16 09:24:00,75.1,61.2,30.00,South,179,2.3,2.3,62,0.00,SCT,,0.00,WeatherDisplay:10.37,2013-08-16 16:24:00,
2013-08-16 09:26:00,75.4,61.5,30.00,SE,136,1.2,0.0,62,0.00,SCT,,0.00,WeatherDisplay:10.37,2013-08-16 16:26:00,
2013-08-16 09:28:00,75.5,61.6,30.00,SE,136,0.0,0.0,62,0.00,SCT,,0.00,WeatherDisplay:10.37,2013-08-16 16:28:00,
2013-08-16 09:29:00,75.6,61.2,30.00,South,189,3.5,3.5,61,0.00,SCT,,0.00,WeatherDisplay:10.37,2013-08-16 16:29:00,
2013-08-16 09:31:00,75.6,61.2,30.00,SSW,207,1.2,1.2,61,0.00,SCT,,0.00,WeatherDisplay:10.37,2013-08-16 16:31:00,
2013-08-16 09:33:00,75.8,61.4,30.00,SSW,198,1.2,1.2,61,0.00,SCT,,0.00,WeatherDisplay:10.37,2013-08-16 16:33:00,
2013-08-16 09:34:00,75.9,61.5,30.00,SSW,198,0.0,0.0,61,0.00,SCT,,0.00,WeatherDisplay:10.37,2013-08-16 16:34:00,
2013-08-16 09:35:00,75.9,61.5,30.00,SSW,198,0.0,0.0,61,0.00,SCT,,0.00,WeatherDisplay:10.37,2013-08-16 16:35:00,
2013-08-16 09:36:00,76.0,61.6,30.00,SE,125,2.3,2.3,61,0.00,SCT,,0.00,WeatherDisplay:10.37,2013-08-16 16:36:00,
2013-08-16 09:37:00,76.1,61.7,30.00,SE,125,2.3,0.0,61,0.00,SCT,,0.00,WeatherDisplay:10.37,2013-08-16 16:37:00,
2013-08-16 09:39:00,76.4,61.5,30.00,SW,221,1.2,0.0,60,0.00,SCT,,0.00,WeatherDisplay:10.37,2013-08-16 16:39:00,
2013-08-16 09:40:00,76.4,61.5,30.00,SSW,199,0.0,3.0,60,0.00,SCT,,0.00,WeatherDisplay:10.37,2013-08-16 16:40:00,
2013-08-16 09:42:00,76.6,61.7,30.00,SSE,162,1.2,1.2,60,0.00,SCT,,0.00,WeatherDisplay:10.37,2013-08-16 16:42:00,
2013-08-16 09:44:00,76.9,61.5,30.00,WNW,291,3.5,0.0,59,0.00,SCT,,0.00,WeatherDisplay:10.37,2013-08-16 16:44:00,
2013-08-16 09:46:00,76.8,61.4,30.00,SW,218,2.3,2.3,59,0.00,SCT,,0.00,WeatherDisplay:10.37,2013-08-16 16:46:00,
2013-08-16 09:47:00,76.9,61.5,30.00,SSW,195,0.0,0.0,59,0.00,SCT,,0.00,WeatherDisplay:10.37,2013-08-16 16:47:00,
2013-08-16 09:49:00,77.0,61.1,30.00,SSW,195,0.0,0.0,58,0.00,SCT,,0.00,WeatherDisplay:10.37,2013-08-16 16:49:00,
2013-08-16 09:50:00,77.0,61.1,30.00,SSW,212,0.0,3.0,58,0.00,SCT,,0.00,WeatherDisplay:10.37,2013-08-16 16:50:00,
2013-08-16 09:51:00,76.9,61.5,30.00,SSW,209,3.5,3.5,59,0.00,SCT,,0.00,WeatherDisplay:10.37,2013-08-16 16:51:00,
2013-08-16 09:52:00,77.1,61.7,30.00,SSW,192,0.0,0.0,59,0.00,SCT,,0.00,WeatherDisplay:10.37,2013-08-16 16:52:00,
2013-08-16 09:54:00,77.3,61.4,30.00,SSW,192,1.2,1.2,58,0.00,SCT,,0.00,WeatherDisplay:10.37,2013-08-16 16:54:00,
2013-08-16 09:55:00,77.3,61.3,30.00,SSW,196,0.0,2.0,58,0.00,SCT,,0.00,WeatherDisplay:10.37,2013-08-16 16:55:00,
2013-08-16 09:56:00,77.3,61.4,30.00,SSW,192,1.2,1.2,58,0.00,SCT,,0.00,WeatherDisplay:10.37,2013-08-16 16:56:00,
2013-08-16 09:58:00,77.3,61.4,30.00,West,265,0.0,0.0,58,0.00,SCT,,0.00,WeatherDisplay:10.37,2013-08-16 16:58:00,
2013-08-16 09:59:00,77.5,61.6,30.00,West,261,0.0,0.0,58,0.00,SCT,,0.00,WeatherDisplay:10.37,2013-08-16 16:59:00,
2013-08-16 10:00:00,77.6,61.7,30.00,West,261,0.0,0.0,58,0.00,SCT,,0.00,WeatherDisplay:10.37,2013-08-16 17:00:00,
2013-08-16 10:01:00,77.9,61.4,30.00,SE,139,0.0,0.1,57,0.00,SCT,,0.00,WeatherDisplay:10.37,2013-08-16 17:01:00,
2013-08-16 10:03:00,78.1,61.1,30.00,SSW,202,3.0,3.0,56,0.00,SCT,,0.00,WeatherDisplay:10.37,2013-08-16 17:03:00,
2013-08-16 10:05:00,78.3,61.3,30.00,SSW,193,0.0,0.0,56,0.00,SCT,,0.00,WeatherDisplay:10.37,2013-08-16 17:05:00,
2013-08-16 10:06:00,78.3,61.3,30.00,SSW,193,0.0,0.0,56,0.00,SCT,,0.00,WeatherDisplay:10.37,2013-08-16 17:06:00,
2013-08-16 10:08:00,78.6,61.1,30.00,ESE,120,7.0,7.0,55,0.00,SCT,,0.00,WeatherDisplay:10.37,2013-08-16 17:08:00,
2013-08-16 10:10:00,78.7,61.2,30.00,SE,142,2.0,7.0,55,0.00,SCT,,0.00,WeatherDisplay:10.37,2013-08-16 17:10:00,
2013-08-16 10:11:00,79.0,60.9,30.00,WSW,240,3.5,3.5,54,0.00,SCT,,0.00,WeatherDisplay:10.37,2013-08-16 17:11:00,
2013-08-16 10:13:00,79.0,60.9,30.00,ESE,111,2.3,2.3,54,0.00,SCT,,0.00,WeatherDisplay:10.37,2013-08-16 17:13:00,
2013-08-16 10:15:00,79.1,61.5,30.00,ESE,111,0.0,0.0,55,0.00,SCT,,0.00,WeatherDisplay:10.37,2013-08-16 17:15:00,
2013-08-16 10:16:00,79.3,61.2,30.00,West,259,1.2,0.0,54,0.00,SCT,,0.00,WeatherDisplay:10.37,2013-08-16 17:16:00,
2013-08-16 10:17:00,79.4,60.8,30.00,West,259,0.0,0.0,53,0.00,SCT,,0.00,WeatherDisplay:10.37,2013-08-16 17:17:00,
2013-08-16 10:19:00,79.5,60.3,30.00,West,259,0.0,0.0,52,0.00,SCT,,0.00,WeatherDisplay:10.37,2013-08-16 17:19:00,
2013-08-16 10:20:00,79.5,60.9,30.00,SW,236,2.0,2.0,53,0.00,SCT,,0.00,WeatherDisplay:10.37,2013-08-16 17:20:00,
2013-08-16 10:21:00,79.6,61.5,30.00,South,171,5.8,5.8,54,0.00,SCT,,0.00,WeatherDisplay:10.37,2013-08-16 17:21:00,
2013-08-16 10:22:00,79.7,61.1,30.00,SE,128,5.8,5.8,53,0.00,SCT,,0.00,WeatherDisplay:10.37,2013-08-16 17:22:00,
2013-08-16 10:24:00,79.9,61.2,30.00,ESE,116,2.3,2.3,53,0.00,SCT,,0.00,WeatherDisplay:10.37,2013-08-16 17:24:00,
2013-08-16 10:25:00,79.9,60.7,30.00,SSE,158,2.3,2.3,52,0.00,SCT,,0.00,WeatherDisplay:10.37,2013-08-16 17:25:00,
2013-08-16 10:27:00,80.0,60.2,30.00,SSE,150,4.6,4.6,51,0.00,SCT,,0.00,WeatherDisplay:10.37,2013-08-16 17:27:00,
2013-08-16 10:28:00,80.1,60.3,30.00,WSW,237,2.3,2.3,51,0.00,SCT,,0.00,WeatherDisplay:10.37,2013-08-16 17:28:00,
2013-08-16 10:30:00,80.4,61.2,30.00,ESE,107,4.6,4.6,52,0.00,SCT,,0.00,WeatherDisplay:10.37,2013-08-16 17:30:00,
2013-08-16 10:32:00,80.5,60.7,30.00,East,100,4.6,4.6,51,0.00,SCT,,0.00,WeatherDisplay:10.37,2013-08-16 17:32:00,
2013-08-16 10:33:00,80.6,60.8,30.00,ESE,109,4.6,4.6,51,0.00,SCT,,0.00,WeatherDisplay:10.37,2013-08-16 17:33:00,
2013-08-16 10:34:00,80.7,60.3,30.01,SW,224,2.0,2.0,50,0.00,SCT,,0.00,WeatherDisplay:10.37,2013-08-16 17:34:00,
2013-08-16 10:36:00,80.8,61.0,30.00,SE,124,2.3,2.3,51,0.00,SCT,,0.00,WeatherDisplay:10.37,2013-08-16 17:36:00,
2013-08-16 10:38:00,81.0,60.0,30.00,SE,126,4.6,4.6,49,0.00,SCT,,0.00,WeatherDisplay:10.37,2013-08-16 17:38:00,
2013-08-16 10:39:00,81.1,60.1,30.00,SE,145,4.6,4.6,49,0.00,SCT,,0.00,WeatherDisplay:10.37,2013-08-16 17:39:00,
2013-08-16 10:40:00,81.1,60.7,30.01,East,100,3.5,3.5,50,0.00,SCT,,0.00,WeatherDisplay:10.37,2013-08-16 17:40:00,
2013-08-16 10:43:00,81.4,60.4,30.01,SSE,152,5.8,5.8,49,0.00,SCT,,0.00,WeatherDisplay:10.37,2013-08-16 17:43:00,
2013-08-16 10:44:00,81.4,60.4,30.00,SE,127,5.8,5.8,49,0.00,SCT,,0.00,WeatherDisplay:10.37,2013-08-16 17:44:00,
2013-08-16 10:46:00,81.5,60.5,30.00,SSE,147,3.5,3.5,49,0.00,SCT,,0.00,WeatherDisplay:10.37,2013-08-16 17:46:00,
2013-08-16 10:48:00,81.7,60.7,30.01,ENE,58,3.5,3.5,49,0.00,SCT,,0.00,WeatherDisplay:10.37,2013-08-16 17:48:00,
2013-08-16 10:49:00,81.7,60.7,30.01,ESE,109,3.5,3.5,49,0.00,SCT,,0.00,WeatherDisplay:10.37,2013-08-16 17:49:00,
2013-08-16 10:50:00,81.8,60.2,30.00,South,180,3.5,3.5,48,0.00,SCT,,0.00,WeatherDisplay:10.37,2013-08-16 17:50:00,
2013-08-16 10:51:00,81.8,60.2,30.01,SE,132,3.5,3.5,48,0.00,SCT,,0.00,WeatherDisplay:10.37,2013-08-16 17:51:00,
2013-08-16 10:53:00,82.0,60.4,30.01,SE,130,4.6,4.6,48,0.00,SCT,,0.00,WeatherDisplay:10.37,2013-08-16 17:53:00,
2013-08-16 10:54:00,82.0,60.4,30.01,SSE,160,6.0,6.0,48,0.00,SCT,,0.00,WeatherDisplay:10.37,2013-08-16 17:54:00,
2013-08-16 10:55:00,82.1,61.0,30.01,SE,139,6.9,6.9,49,0.00,SCT,,0.00,WeatherDisplay:10.37,2013-08-16 17:55:00,
2013-08-16 10:56:00,82.3,60.6,30.01,SE,133,4.6,4.6,48,0.00,SCT,,0.00,WeatherDisplay:10.37,2013-08-16 17:56:00,
2013-08-16 10:57:00,82.3,60.6,30.01,ESE,115,6.0,6.0,48,0.00,SCT,,0.00,WeatherDisplay:10.37,2013-08-16 17:57:00,
2013-08-16 10:59:00,82.5,60.8,30.01,SE,141,6.9,6.9,48,0.00,SCT,,0.00,WeatherDisplay:10.37,2013-08-16 17:59:00,
2013-08-16 11:00:00,82.6,60.3,30.01,South,176,6.9,6.9,47,0.00,SCT,,0.00,WeatherDisplay:10.37,2013-08-16 18:00:00,
2013-08-16 11:02:00,82.7,60.4,30.01,SSW,193,6.9,6.9,47,0.00,SCT,,0.00,WeatherDisplay:10.37,2013-08-16 18:02:00,
2013-08-16 11:04:00,83.0,60.1,30.01,East,79,2.3,2.3,46,0.00,SCT,,0.00,WeatherDisplay:10.37,2013-08-16 18:04:00,
2013-08-16 11:05:00,83.1,60.2,30.01,SE,145,3.5,3.5,46,0.00,SCT,,0.00,WeatherDisplay:10.37,2013-08-16 18:05:00,
2013-08-16 11:07:00,83.2,60.3,30.01,East,89,6.9,6.9,46,0.00,SCT,,0.00,WeatherDisplay:10.37,2013-08-16 18:07:00,
2013-08-16 11:08:00,83.2,60.3,30.01,East,89,6.9,6.9,46,0.00,SCT,,0.00,WeatherDisplay:10.37,2013-08-16 18:08:00,
2013-08-16 11:09:00,83.3,60.4,30.01,ENE,73,2.3,2.3,46,0.00,SCT,,0.00,WeatherDisplay:10.37,2013-08-16 18:09:00,
2013-08-16 11:10:00,83.3,60.4,30.01,ENE,73,2.3,2.3,46,0.00,SCT,,0.00,WeatherDisplay:10.37,2013-08-16 18:10:00,
2013-08-16 11:11:00,83.3,60.4,30.00,ESE,120,3.0,3.0,46,0.00,SCT,,0.00,WeatherDisplay:10.37,2013-08-16 18:11:00,
2013-08-16 11:13:00,83.4,60.4,30.01,ESE,106,6.9,6.9,46,0.00,SCT,,0.00,WeatherDisplay:10.37,2013-08-16 18:13:00,
2013-08-16 11:14:00,83.4,59.8,30.01,SSE,155,2.3,2.3,45,0.00,SCT,,0.00,WeatherDisplay:10.37,2013-08-16 18:14:00,
2013-08-16 11:15:00,83.4,60.4,30.01,South,184,5.0,5.0,46,0.00,SCT,,0.00,WeatherDisplay:10.37,2013-08-16 18:15:00,
2013-08-16 11:16:00,83.5,60.5,30.00,SE,133,4.6,4.6,46,0.00,SCT,,0.00,WeatherDisplay:10.37,2013-08-16 18:16:00,
2013-08-16 11:18:00,83.7,60.1,30.00,ESE,119,1.2,1.2,45,0.00,SCT,,0.00,WeatherDisplay:10.37,2013-08-16 18:18:00,
2013-08-16 11:19:00,83.8,60.2,30.01,East,83,3.0,3.0,45,0.00,SCT,,0.00,WeatherDisplay:10.37,2013-08-16 18:19:00,
2013-08-16 11:20:00,83.8,60.2,30.00,SE,137,2.0,2.0,45,0.00,SCT,,0.00,WeatherDisplay:10.37,2013-08-16 18:20:00,
2013-08-16 11:21:00,83.9,60.3,30.00,East,83,3.5,3.5,45,0.00,SCT,,0.00,WeatherDisplay:10.37,2013-08-16 18:21:00,
2013-08-16 11:23:00,84.2,59.9,30.00,SE,125,8.1,8.1,44,0.00,SCT,,0.00,WeatherDisplay:10.37,2013-08-16 18:23:00,
2013-08-16 11:25:00,84.2,60.0,30.01,SE,144,2.0,8.0,44,0.00,SCT,,0.00,WeatherDisplay:10.37,2013-08-16 18:25:00,
2013-08-16 11:26:00,84.3,59.4,30.01,ENE,61,5.8,5.8,43,0.00,SCT,,0.00,WeatherDisplay:10.37,2013-08-16 18:26:00,
2013-08-16 11:28:00,84.5,59.5,30.01,ESE,118,2.0,2.0,43,0.00,SCT,,0.00,WeatherDisplay:10.37,2013-08-16 18:28:00,
2013-08-16 11:30:00,84.5,59.5,30.01,SSW,195,3.5,3.5,43,0.00,SCT,,0.00,WeatherDisplay:10.37,2013-08-16 18:30:00,
2013-08-16 11:31:00,84.5,59.5,30.01,ESE,104,4.6,4.6,43,0.00,SCT,,0.00,WeatherDisplay:10.37,2013-08-16 18:31:00,
2013-08-16 11:33:00,84.6,59.6,30.00,SSE,157,1.2,1.2,43,0.00,SCT,,0.00,WeatherDisplay:10.37,2013-08-16 18:33:00,
2013-08-16 11:34:00,84.7,59.1,30.00,South,173,1.2,1.2,42,0.00,SCT,,0.00,WeatherDisplay:10.37,2013-08-16 18:34:00,
2013-08-16 11:35:00,84.8,59.8,30.00,SE,124,5.8,5.8,43,0.00,SCT,,0.00,WeatherDisplay:10.37,2013-08-16 18:35:00,
2013-08-16 11:36:00,84.8,59.8,30.00,East,93,5.8,5.8,43,0.00,SCT,,0.00,WeatherDisplay:10.37,2013-08-16 18:36:00,
2013-08-16 11:37:00,84.9,59.9,30.00,SE,131,4.6,4.6,43,0.00,SCT,,0.00,WeatherDisplay:10.37,2013-08-16 18:37:00,
2013-08-16 11:38:00,85.1,60.1,30.00,NNE,32,3.5,3.5,43,0.00,SCT,,0.00,WeatherDisplay:10.37,2013-08-16 18:38:00,
2013-08-16 11:39:00,85.2,60.2,30.01,NW,316,3.5,3.5,43,0.00,SCT,,0.00,WeatherDisplay:10.37,2013-08-16 18:39:00,
2013-08-16 11:40:00,85.3,59.6,30.00,SE,126,8.1,8.1,42,0.00,SCT,,0.00,WeatherDisplay:10.37,2013-08-16 18:40:00,
2013-08-16 11:41:00,85.4,59.7,30.00,SE,134,4.0,4.0,42,0.00,SCT,,0.00,WeatherDisplay:10.37,2013-08-16 18:41:00,
2013-08-16 11:42:00,85.5,59.1,30.00,SE,129,4.6,4.6,41,0.00,SCT,,0.00,WeatherDisplay:10.37,2013-08-16 18:42:00,
2013-08-16 11:45:00,85.7,60.0,30.00,SSE,165,4.6,4.6,42,0.00,SCT,,0.00,WeatherDisplay:10.37,2013-08-16 18:45:00,
2013-08-16 11:46:00,85.8,60.1,30.00,East,99,3.5,3.5,42,0.00,SCT,,0.00,WeatherDisplay:10.37,2013-08-16 18:46:00,
2013-08-16 11:47:00,86.0,59.6,30.00,SE,135,6.9,6.9,41,0.00,SCT,,0.00,WeatherDisplay:10.37,2013-08-16 18:47:00,
2013-08-16 11:48:00,86.1,60.3,30.00,SE,144,3.5,3.5,42,0.00,SCT,,0.00,WeatherDisplay:10.37,2013-08-16 18:48:00,
2013-08-16 11:50:00,86.2,59.7,30.00,SE,134,5.8,0.0,41,0.00,SCT,,0.00,WeatherDisplay:10.37,2013-08-16 18:50:00,
2013-08-16 11:51:00,86.4,59.9,30.00,SE,129,3.5,3.5,41,0.00,SCT,,0.00,WeatherDisplay:10.37,2013-08-16 18:51:00,
2013-08-16 11:52:00,86.4,59.2,30.00,SE,131,3.5,3.5,40,0.00,SCT,,0.00,WeatherDisplay:10.37,2013-08-16 18:52:00,
2013-08-16 11:54:00,86.4,59.2,30.00,ENE,77,3.5,3.5,40,0.00,SCT,,0.00,WeatherDisplay:10.37,2013-08-16 18:54:00,
2013-08-16 11:55:00,86.5,59.3,30.00,ESE,120,3.5,3.5,40,0.00,SCT,,0.00,WeatherDisplay:10.37,2013-08-16 18:55:00,
2013-08-16 11:56:00,86.5,59.3,30.00,ESE,117,3.5,3.5,40,0.00,SCT,,0.00,WeatherDisplay:10.37,2013-08-16 18:56:00,
2013-08-16 11:57:00,86.5,59.3,30.00,ESE,104,3.0,3.0,40,0.00,SCT,,0.00,WeatherDisplay:10.37,2013-08-16 18:57:00,
2013-08-16 11:59:00,86.6,59.4,30.00,ESE,114,3.5,3.5,40,0.00,SCT,,0.00,WeatherDisplay:10.37,2013-08-16 18:59:00,
2013-08-16 12:01:00,86.8,59.6,30.00,ENE,73,3.5,3.5,40,0.00,SCT,,0.00,WeatherDisplay:10.37,2013-08-16 19:01:00,
2013-08-16 12:02:00,86.8,59.6,30.00,East,86,3.5,3.5,40,0.00,SCT,,0.00,WeatherDisplay:10.37,2013-08-16 19:02:00,
2013-08-16 12:04:00,86.9,59.7,30.00,East,99,8.1,8.1,40,0.00,SCT,,0.00,WeatherDisplay:10.37,2013-08-16 19:04:00,
2013-08-16 12:06:00,87.1,59.1,30.00,SE,137,3.5,3.5,39,0.00,SCT,,0.00,WeatherDisplay:10.37,2013-08-16 19:06:00,
2013-08-16 12:07:00,87.1,59.1,30.00,SE,140,3.5,3.5,39,0.00,SCT,,0.00,WeatherDisplay:10.37,2013-08-16 19:07:00,
2013-08-16 12:08:00,87.1,59.8,30.00,ESE,119,3.5,3.5,40,0.00,SCT,,0.00,WeatherDisplay:10.37,2013-08-16 19:08:00,
2013-08-16 12:10:00,87.4,58.7,30.00,ENE,75,8.1,8.1,38,0.00,SCT,,0.00,WeatherDisplay:10.37,2013-08-16 19:10:00,
2013-08-16 12:11:00,87.4,58.7,30.00,East,90,8.1,8.1,38,0.00,SCT,,0.00,WeatherDisplay:10.37,2013-08-16 19:11:00,
2013-08-16 12:12:00,87.4,58.7,30.00,East,94,8.1,8.1,38,0.00,SCT,,0.00,WeatherDisplay:10.37,2013-08-16 19:12:00,
2013-08-16 12:14:00,87.4,59.4,30.00,NNE,25,2.3,2.3,39,0.00,SCT,,0.00,WeatherDisplay:10.37,2013-08-16 19:14:00,
2013-08-16 12:17:00,87.4,59.4,30.00,ESE,110,3.0,3.0,39,0.00,SCT,,0.00,WeatherDisplay:10.37,2013-08-16 19:17:00,
2013-08-16 12:18:00,87.6,58.9,30.00,NE,45,3.5,3.5,38,0.00,SCT,,0.00,WeatherDisplay:10.37,2013-08-16 19:18:00,
2013-08-16 12:21:00,87.8,59.8,30.00,SSE,155,3.5,3.5,39,0.00,SCT,,0.00,WeatherDisplay:10.37,2013-08-16 19:21:00,
2013-08-16 12:22:00,88.0,59.9,30.00,West,273,3.5,3.5,39,0.00,SCT,,0.00,WeatherDisplay:10.37,2013-08-16 19:22:00,
2013-08-16 12:23:00,88.0,59.9,30.00,West,278,3.5,3.5,39,0.00,SCT,,0.00,WeatherDisplay:10.37,2013-08-16 19:23:00,
2013-08-16 12:24:00,88.1,59.3,30.00,NNE,27,3.5,3.5,38,0.00,SCT,,0.00,WeatherDisplay:10.37,2013-08-16 19:24:00,
2013-08-16 12:27:00,88.2,58.6,30.00,ENE,59,3.5,3.5,37,0.00,SCT,,0.00,WeatherDisplay:10.37,2013-08-16 19:27:00,
2013-08-16 12:28:00,88.2,58.6,30.00,SE,125,4.0,4.0,37,0.00,SCT,,0.00,WeatherDisplay:10.37,2013-08-16 19:28:00,
2013-08-16 12:29:00,88.2,58.6,30.00,SSE,156,3.5,3.5,37,0.00,SCT,,0.00,WeatherDisplay:10.37,2013-08-16 19:29:00,
2013-08-16 12:30:00,88.2,58.6,30.00,SE,126,3.5,3.5,37,0.00,SCT,,0.00,WeatherDisplay:10.37,2013-08-16 19:30:00,
2013-08-16 12:32:00,88.4,59.6,30.00,ENE,77,2.0,2.0,38,0.00,SCT,,0.00,WeatherDisplay:10.37,2013-08-16 19:32:00,
2013-08-16 12:33:00,88.5,59.7,30.00,ESE,117,3.5,3.5,38,0.00,SCT,,0.00,WeatherDisplay:10.37,2013-08-16 19:33:00,
2013-08-16 12:34:00,88.6,58.2,30.00,East,91,3.5,3.5,36,0.00,SCT,,0.00,WeatherDisplay:10.37,2013-08-16 19:34:00,
2013-08-16 12:35:00,88.7,58.3,30.00,ESE,119,3.5,3.5,36,0.00,SCT,,0.00,WeatherDisplay:10.37,2013-08-16 19:35:00,
2013-08-16 12:38:00,88.7,59.1,30.00,ESE,104,4.0,4.0,37,0.00,SCT,,0.00,WeatherDisplay:10.37,2013-08-16 19:38:00,
2013-08-16 12:40:00,88.6,58.2,30.00,SSE,164,4.6,4.6,36,0.00,SCT,,0.00,WeatherDisplay:10.37,2013-08-16 19:40:00,
2013-08-16 12:41:00,88.7,59.1,30.00,East,84,4.6,4.6,37,0.00,SCT,,0.00,WeatherDisplay:10.37,2013-08-16 19:41:00,
2013-08-16 12:43:00,88.7,58.3,30.00,ENE,57,4.6,4.6,36,0.00,SCT,,0.00,WeatherDisplay:10.37,2013-08-16 19:43:00,
2013-08-16 12:45:00,88.9,58.5,30.00,ENE,70,3.5,3.5,36,0.00,SCT,,0.00,WeatherDisplay:10.37,2013-08-16 19:45:00,
2013-08-16 12:46:00,89.0,58.6,30.00,ENE,70,6.0,6.0,36,0.00,SCT,,0.00,WeatherDisplay:10.37,2013-08-16 19:46:00,
2013-08-16 12:48:00,89.1,58.7,30.00,ESE,105,5.0,5.0,36,0.00,SCT,,0.00,WeatherDisplay:10.37,2013-08-16 19:48:00,
2013-08-16 12:50:00,89.2,58.0,30.00,SE,144,6.9,6.9,35,0.00,SCT,,0.00,WeatherDisplay:10.37,2013-08-16 19:50:00,
2013-08-16 12:51:00,89.2,58.0,30.00,SE,141,5.8,5.8,35,0.00,SCT,,0.00,WeatherDisplay:10.37,2013-08-16 19:51:00,
2013-08-16 12:52:00,89.3,58.1,30.00,ESE,115,4.6,4.6,35,0.00,SCT,,0.00,WeatherDisplay:10.37,2013-08-16 19:52:00,
2013-08-16 12:53:00,89.3,58.1,30.00,ESE,116,3.5,3.5,35,0.00,SCT,,0.00,WeatherDisplay:10.37,2013-08-16 19:53:00,
2013-08-16 12:54:00,89.3,58.1,30.00,ESE,121,3.5,3.5,35,0.00,SCT,,0.00,WeatherDisplay:10.37,2013-08-16 19:54:00,
2013-08-16 12:56:00,89.4,57.3,30.00,South,171,5.8,5.8,34,0.00,SCT,,0.00,WeatherDisplay:10.37,2013-08-16 19:56:00,
2013-08-16 12:57:00,89.4,57.3,30.00,ESE,103,3.5,3.5,34,0.00,SCT,,0.00,WeatherDisplay:10.37,2013-08-16 19:57:00,
2013-08-16 12:58:00,89.5,57.4,30.00,SE,125,4.0,4.0,34,0.00,SCT,,0.00,WeatherDisplay:10.37,2013-08-16 19:58:00,
2013-08-16 13:00:00,89.5,57.4,30.00,ESE,109,8.1,8.1,34,0.00,SCT,,0.00,WeatherDisplay:10.37,2013-08-16 20:00:00,
2013-08-16 13:02:00,89.7,56.8,30.00,SSE,153,5.8,5.8,33,0.00,SCT,,0.00,WeatherDisplay:10.37,2013-08-16 20:02:00,
2013-08-16 13:03:00,89.7,56.8,30.00,SSE,149,6.9,6.9,33,0.00,SCT,,0.00,WeatherDisplay:10.37,2013-08-16 20:03:00,
2013-08-16 13:04:00,89.7,56.8,30.00,SE,133,9.2,9.2,33,0.00,SCT,,0.00,WeatherDisplay:10.37,2013-08-16 20:04:00,
2013-08-16 13:05:00,89.7,56.8,30.00,South,190,9.2,9.2,33,0.00,SCT,,0.00,WeatherDisplay:10.37,2013-08-16 20:05:00,
2013-08-16 13:07:00,89.5,56.6,30.00,SE,136,4.6,4.6,33,0.00,SCT,,0.00,WeatherDisplay:10.37,2013-08-16 20:07:00,
2013-08-16 13:09:00,89.6,56.7,30.00,SE,142,4.6,4.6,33,0.00,SCT,,0.00,WeatherDisplay:10.37,2013-08-16 20:09:00,
2013-08-16 13:10:00,89.6,56.7,30.00,SE,136,4.6,4.6,33,0.00,SCT,,0.00,WeatherDisplay:10.37,2013-08-16 20:10:00,
2013-08-16 13:12:00,89.7,56.8,30.00,ESE,121,6.9,6.9,33,0.00,SCT,,0.00,WeatherDisplay:10.37,2013-08-16 20:12:00,
2013-08-16 13:13:00,89.7,56.8,30.00,ESE,119,4.6,4.6,33,0.00,SCT,,0.00,WeatherDisplay:10.37,2013-08-16 20:13:00,
2013-08-16 13:15:00,89.7,56.8,30.00,ESE,116,2.0,9.0,33,0.00,SCT,,0.00,WeatherDisplay:10.37,2013-08-16 20:15:00,
2013-08-16 13:16:00,89.8,56.9,30.00,SE,134,9.2,9.2,33,0.00,SCT,,0.00,WeatherDisplay:10.37,2013-08-16 20:16:00,
2013-08-16 13:17:00,89.9,56.9,30.00,East,87,5.8,5.8,33,0.00,SCT,,0.00,WeatherDisplay:10.37,2013-08-16 20:17:00,
2013-08-16 13:18:00,90.0,57.0,30.00,ESE,123,5.8,5.8,33,0.00,SCT,,0.00,WeatherDisplay:10.37,2013-08-16 20:18:00,
2013-08-16 13:20:00,90.1,57.1,30.00,SE,137,5.0,5.0,33,0.00,SCT,,0.00,WeatherDisplay:10.37,2013-08-16 20:20:00,
2013-08-16 13:21:00,90.1,57.1,30.00,ESE,104,2.0,2.0,33,0.00,SCT,,0.00,WeatherDisplay:10.37,2013-08-16 20:21:00,
2013-08-16 13:22:00,90.2,56.4,30.00,ESE,117,4.6,4.6,32,0.00,SCT,,0.00,WeatherDisplay:10.37,2013-08-16 20:22:00,
2013-08-16 13:25:00,90.3,56.4,29.99,East,95,8.1,8.1,32,0.00,SCT,,0.00,WeatherDisplay:10.37,2013-08-16 20:25:00,
2013-08-16 13:26:00,90.3,57.3,29.99,SE,124,6.9,6.9,33,0.00,SCT,,0.00,WeatherDisplay:10.37,2013-08-16 20:26:00,
2013-08-16 13:27:00,90.3,56.4,30.00,South,190,6.9,6.9,32,0.00,SCT,,0.00,WeatherDisplay:10.37,2013-08-16 20:27:00,
2013-08-16 13:28:00,90.3,56.4,30.00,SE,142,6.9,6.9,32,0.00,SCT,,0.00,WeatherDisplay:10.37,2013-08-16 20:28:00,
2013-08-16 13:30:00,90.4,56.5,29.99,ENE,71,3.5,3.5,32,0.00,SCT,,0.00,WeatherDisplay:10.37,2013-08-16 20:30:00,
2013-08-16 13:31:00,90.5,56.6,30.00,SE,140,5.0,5.0,32,0.00,SCT,,0.00,WeatherDisplay:10.37,2013-08-16 20:31:00,
2013-08-16 13:33:00,90.6,55.8,29.99,ESE,121,6.9,6.9,31,0.00,SCT,,0.00,WeatherDisplay:10.37,2013-08-16 20:33:00,
2013-08-16 13:35:00,90.6,55.8,30.00,SSE,148,3.5,3.5,31,0.00,SCT,,0.00,WeatherDisplay:10.37,2013-08-16 20:35:00,
2013-08-16 13:37:00,90.7,55.9,29.99,SE,136,9.2,9.2,31,0.00,SCT,,0.00,WeatherDisplay:10.37,2013-08-16 20:37:00,
2013-08-16 13:38:00,90.7,55.0,29.99,SSE,165,3.0,3.0,30,0.00,SCT,,0.00,WeatherDisplay:10.37,2013-08-16 20:38:00,
2013-08-16 13:39:00,90.7,55.0,29.99,SE,135,2.3,2.3,30,0.00,SCT,,0.00,WeatherDisplay:10.37,2013-08-16 20:39:00,
2013-08-16 13:42:00,90.9,55.2,29.99,SSE,150,4.6,4.6,30,0.00,SCT,,0.00,WeatherDisplay:10.37,2013-08-16 20:42:00,
2013-08-16 13:43:00,91.0,55.3,29.99,SE,130,4.6,4.6,30,0.00,SCT,,0.00,WeatherDisplay:10.37,2013-08-16 20:43:00,
2013-08-16 13:44:00,91.0,55.3,29.99,SE,138,4.6,4.6,30,0.00,SCT,,0.00,WeatherDisplay:10.37,2013-08-16 20:44:00,
2013-08-16 13:47:00,91.1,55.3,30.00,East,80,6.9,6.9,30,0.00,SCT,,0.00,WeatherDisplay:10.37,2013-08-16 20:47:00,
2013-08-16 13:48:00,91.1,55.3,29.99,ESE,113,6.9,6.9,30,0.00,SCT,,0.00,WeatherDisplay:10.37,2013-08-16 20:48:00,
2013-08-16 13:50:00,91.0,55.3,29.99,East,97,3.5,3.5,30,0.00,SCT,,0.00,WeatherDisplay:10.37,2013-08-16 20:50:00,
2013-08-16 13:52:00,91.0,55.3,29.99,ESE,116,2.3,2.3,30,0.00,SCT,,0.00,WeatherDisplay:10.37,2013-08-16 20:52:00,
2013-08-16 13:54:00,91.1,54.4,30.00,SE,124,3.5,3.5,29,0.00,SCT,,0.00,WeatherDisplay:10.37,2013-08-16 20:54:00,
2013-08-16 13:55:00,91.1,55.3,30.00,SE,137,2.3,2.3,30,0.00,SCT,,0.00,WeatherDisplay:10.37,2013-08-16 20:55:00,
2013-08-16 13:56:00,91.1,54.4,29.99,East,92,2.3,2.3,29,0.00,SCT,,0.00,WeatherDisplay:10.37,2013-08-16 20:56:00,
2013-08-16 13:57:00,91.2,55.4,30.00,SSE,158,3.5,3.5,30,0.00,SCT,,0.00,WeatherDisplay:10.37,2013-08-16 20:57:00,
2013-08-16 13:59:00,91.3,54.6,30.00,ESE,121,1.2,1.8,29,0.00,SCT,,0.00,WeatherDisplay:10.37,2013-08-16 20:59:00,
2013-08-16 14:00:00,91.3,54.6,30.00,ESE,121,1.2,1.8,29,0.00,SCT,,0.00,WeatherDisplay:10.37,2013-08-16 21:00:00,
2013-08-16 14:01:00,91.3,54.6,30.00,SSE,147,4.6,4.6,29,0.00,SCT,,0.00,WeatherDisplay:10.37,2013-08-16 21:01:00,
2013-08-16 14:03:00,91.3,54.6,29.99,SE,134,3.5,3.5,29,0.00,SCT,,0.00,WeatherDisplay:10.37,2013-08-16 21:03:00,
2013-08-16 14:05:00,91.3,54.6,30.00,SE,135,3.5,3.5,29,0.00,SCT,,0.00,WeatherDisplay:10.37,2013-08-16 21:05:00,
2013-08-16 14:06:00,91.4,54.7,30.00,SE,128,5.8,5.8,29,0.00,SCT,,0.00,WeatherDisplay:10.37,2013-08-16 21:06:00,
2013-08-16 14:07:00,91.4,54.7,29.99,SE,132,5.8,5.8,29,0.00,SCT,,0.00,WeatherDisplay:10.37,2013-08-16 21:07:00,
2013-08-16 14:09:00,91.4,54.7,30.00,SSE,153,5.8,5.8,29,0.00,SCT,,0.00,WeatherDisplay:10.37,2013-08-16 21:09:00,
2013-08-16 14:11:00,91.5,54.8,30.00,ESE,102,6.9,6.9,29,0.00,SCT,,0.00,WeatherDisplay:10.37,2013-08-16 21:11:00,
2013-08-16 14:13:00,91.5,53.8,29.99,East,90,4.0,4.0,28,0.00,SCT,,0.00,WeatherDisplay:10.37,2013-08-16 21:13:00,
2013-08-16 14:14:00,91.5,53.8,29.99,SSE,151,4.6,4.6,28,0.00,SCT,,0.00,WeatherDisplay:10.37,2013-08-16 21:14:00,
2013-08-16 14:16:00,91.4,54.7,29.99,SE,140,6.9,6.9,29,0.00,SCT,,0.00,WeatherDisplay:10.37,2013-08-16 21:16:00,
2013-08-16 14:17:00,91.5,54.8,29.99,ESE,106,2.3,2.3,29,0.00,SCT,,0.00,WeatherDisplay:10.37,2013-08-16 21:17:00,
2013-08-16 14:19:00,91.6,54.8,29.99,SE,141,3.5,3.5,29,0.00,SCT,,0.00,WeatherDisplay:10.37,2013-08-16 21:19:00,
2013-08-16 14:20:00,91.7,54.9,29.99,East,80,1.2,1.2,29,0.00,SCT,,0.00,WeatherDisplay:10.37,2013-08-16 21:20:00,
2013-08-16 14:21:00,91.7,54.9,29.99,ENE,78,1.2,1.2,29,0.00,SCT,,0.00,WeatherDisplay:10.37,2013-08-16 21:21:00,
2013-08-16 14:22:00,91.7,54.9,29.99,ESE,103,5.8,5.8,29,0.00,SCT,,0.00,WeatherDisplay:10.37,2013-08-16 21:22:00,
2013-08-16 14:23:00,91.8,55.0,29.99,East,83,5.8,5.8,29,0.00,SCT,,0.00,WeatherDisplay:10.37,2013-08-16 21:23:00,
2013-08-16 14:26:00,91.8,54.1,29.99,East,101,6.9,6.9,28,0.00,SCT,,0.00,WeatherDisplay:10.37,2013-08-16 21:26:00,
2013-08-16 14:27:00,91.8,55.0,29.99,SSW,201,6.9,6.9,29,0.00,SCT,,0.00,WeatherDisplay:10.37,2013-08-16 21:27:00,
2013-08-16 14:28:00,91.8,55.0,29.99,South,172,6.9,6.9,29,0.00,SCT,,0.00,WeatherDisplay:10.37,2013-08-16 21:28:00,
2013-08-16 14:32:00,92.0,55.2,29.99,NE,36,3.5,3.5,29,0.00,SCT,,0.00,WeatherDisplay:10.37,2013-08-16 21:32:00,
2013-08-16 14:33:00,92.0,55.2,29.99,SE,128,4.6,4.6,29,0.00,SCT,,0.00,WeatherDisplay:10.37,2013-08-16 21:33:00,
2013-08-16 14:35:00,92.1,55.3,29.99,SE,140,2.3,2.3,29,0.00,SCT,,0.00,WeatherDisplay:10.37,2013-08-16 21:35:00,
2013-08-16 14:38:00,91.9,55.1,29.99,SE,131,3.5,3.5,29,0.00,SCT,,0.00,WeatherDisplay:10.37,2013-08-16 21:38:00,
2013-08-16 14:39:00,91.9,55.1,29.99,SE,131,3.5,3.5,29,0.00,SCT,,0.00,WeatherDisplay:10.37,2013-08-16 21:39:00,
2013-08-16 14:40:00,91.8,55.0,29.99,SSE,163,3.5,3.5,29,0.00,SCT,,0.00,WeatherDisplay:10.37,2013-08-16 21:40:00,
2013-08-16 14:44:00,91.5,55.7,29.99,WSW,237,2.3,2.3,30,0.00,SCT,,0.00,WeatherDisplay:10.37,2013-08-16 21:44:00,
2013-08-16 14:45:00,91.6,55.8,29.99,SSW,202,3.5,3.5,30,0.00,SCT,,0.00,WeatherDisplay:10.37,2013-08-16 21:45:00,
2013-08-16 14:46:00,91.6,55.8,29.99,SSW,200,3.5,3.5,30,0.00,SCT,,0.00,WeatherDisplay:10.37,2013-08-16 21:46:00,
2013-08-16 14:49:00,91.6,55.8,29.99,SE,126,3.5,3.5,30,0.00,SCT,,0.00,WeatherDisplay:10.37,2013-08-16 21:49:00,
2013-08-16 14:51:00,91.7,54.9,29.99,ESE,102,4.6,4.6,29,0.00,SCT,,0.00,WeatherDisplay:10.37,2013-08-16 21:51:00,
2013-08-16 14:52:00,91.7,54.9,29.99,South,184,3.5,3.5,29,0.00,SCT,,0.00,WeatherDisplay:10.37,2013-08-16 21:52:00,
2013-08-16 14:54:00,91.8,55.0,29.99,ESE,114,5.8,5.8,29,0.00,SCT,,0.00,WeatherDisplay:10.37,2013-08-16 21:54:00,
2013-08-16 14:55:00,91.8,55.0,29.99,SE,136,5.8,5.8,29,0.00,SCT,,0.00,WeatherDisplay:10.37,2013-08-16 21:55:00,
2013-08-16 14:56:00,91.8,55.0,29.99,SE,132,5.8,5.8,29,0.00,SCT,,0.00,WeatherDisplay:10.37,2013-08-16 21:56:00,
2013-08-16 14:57:00,91.7,54.0,29.99,SE,138,3.5,3.5,28,0.00,SCT,,0.00,WeatherDisplay:10.37,2013-08-16 21:57:00,
2013-08-16 15:00:00,91.8,55.0,29.98,ESE,119,1.0,9.0,29,0.00,SCT,,0.00,WeatherDisplay:10.37,2013-08-16 22:00:00,
2013-08-16 15:01:00,91.8,54.1,29.98,SE,130,3.5,3.5,28,0.00,SCT,,0.00,WeatherDisplay:10.37,2013-08-16 22:01:00,
2013-08-16 15:02:00,91.8,54.1,29.99,ESE,103,2.3,2.3,28,0.00,SCT,,0.00,WeatherDisplay:10.37,2013-08-16 22:02:00,
2013-08-16 15:03:00,91.8,54.1,29.99,East,85,2.3,2.3,28,0.00,SCT,,0.00,WeatherDisplay:10.37,2013-08-16 22:03:00,
2013-08-16 15:05:00,92.0,53.2,29.98,ESE,113,2.3,2.3,27,0.00,SCT,,0.00,WeatherDisplay:10.37,2013-08-16 22:05:00,
2013-08-16 15:06:00,92.0,54.2,29.98,ENE,78,2.3,2.3,28,0.00,SCT,,0.00,WeatherDisplay:10.37,2013-08-16 22:06:00,
2013-08-16 15:07:00,92.1,54.3,29.98,East,81,4.6,4.6,28,0.00,SCT,,0.00,WeatherDisplay:10.37,2013-08-16 22:07:00,
2013-08-16 15:08:00,92.1,54.3,29.98,East,82,4.6,4.6,28,0.00,SCT,,0.00,WeatherDisplay:10.37,2013-08-16 22:08:00,
2013-08-16 15:11:00,92.2,54.4,29.98,SSE,151,3.5,3.5,28,0.00,SCT,,0.00,WeatherDisplay:10.37,2013-08-16 22:11:00,
2013-08-16 15:12:00,92.3,54.5,29.98,SE,135,5.8,5.8,28,0.00,SCT,,0.00,WeatherDisplay:10.37,2013-08-16 22:12:00,
2013-08-16 15:13:00,92.3,54.5,29.98,SSE,163,3.5,3.5,28,0.00,SCT,,0.00,WeatherDisplay:10.37,2013-08-16 22:13:00,
2013-08-16 15:17:00,92.2,54.4,29.98,SSW,195,4.6,4.6,28,0.00,SCT,,0.00,WeatherDisplay:10.37,2013-08-16 22:17:00,
2013-08-16 15:18:00,92.1,54.3,29.98,SE,137,4.0,4.0,28,0.00,SCT,,0.00,WeatherDisplay:10.37,2013-08-16 22:18:00,
2013-08-16 15:19:00,92.0,54.2,29.98,SSE,148,3.5,3.5,28,0.00,SCT,,0.00,WeatherDisplay:10.37,2013-08-16 22:19:00,
2013-08-16 15:22:00,91.9,54.1,29.98,ENE,60,3.5,3.5,28,0.00,SCT,,0.00,WeatherDisplay:10.37,2013-08-16 22:22:00,
2013-08-16 15:23:00,91.9,54.1,29.98,SSE,150,3.5,3.5,28,0.00,SCT,,0.00,WeatherDisplay:10.37,2013-08-16 22:23:00,
2013-08-16 15:24:00,91.9,53.1,29.98,SSE,156,4.6,4.6,27,0.00,SCT,,0.00,WeatherDisplay:10.37,2013-08-16 22:24:00,
2013-08-16 15:27:00,91.9,53.1,29.98,SSE,152,6.9,6.9,27,0.00,SCT,,0.00,WeatherDisplay:10.37,2013-08-16 22:27:00,
2013-08-16 15:29:00,91.8,54.1,29.98,SSE,151,6.9,6.9,28,0.00,SCT,,0.00,WeatherDisplay:10.37,2013-08-16 22:29:00,
2013-08-16 15:30:00,91.8,54.1,29.98,SSE,150,5.8,5.8,28,0.00,SCT,,0.00,WeatherDisplay:10.37,2013-08-16 22:30:00,
2013-08-16 15:32:00,91.5,54.8,29.98,SSW,199,4.6,4.6,29,0.00,SCT,,0.00,WeatherDisplay:10.37,2013-08-16 22:32:00,
2013-08-16 15:35:00,91.2,54.5,29.98,SSE,160,5.8,5.8,29,0.00,SCT,,0.00,WeatherDisplay:10.37,2013-08-16 22:35:00,
2013-08-16 15:38:00,91.2,53.5,29.98,SE,133,5.8,5.8,28,0.00,SCT,,0.00,WeatherDisplay:10.37,2013-08-16 22:38:00,
2013-08-16 15:39:00,91.1,53.5,29.98,East,93,4.6,4.6,28,0.00,SCT,,0.00,WeatherDisplay:10.37,2013-08-16 22:39:00,
2013-08-16 15:40:00,91.1,53.5,29.98,ESE,119,8.1,8.1,28,0.00,SCT,,0.00,WeatherDisplay:10.37,2013-08-16 22:40:00,
2013-08-16 15:41:00,91.1,53.5,29.98,SSE,157,6.9,6.9,28,0.00,SCT,,0.00,WeatherDisplay:10.37,2013-08-16 22:41:00,
2013-08-16 15:44:00,91.2,54.5,29.98,SSE,162,3.5,3.5,29,0.00,SCT,,0.00,WeatherDisplay:10.37,2013-08-16 22:44:00,
2013-08-16 15:46:00,91.3,54.6,29.98,SSW,201,2.3,2.3,29,0.00,SCT,,0.00,WeatherDisplay:10.37,2013-08-16 22:46:00,
2013-08-16 15:47:00,91.4,54.7,29.98,South,170,2.3,2.3,29,0.00,SCT,,0.00,WeatherDisplay:10.37,2013-08-16 22:47:00,
2013-08-16 15:49:00,91.4,54.7,29.98,SSW,210,3.5,3.5,29,0.00,SCT,,0.00,WeatherDisplay:10.37,2013-08-16 22:49:00,
2013-08-16 15:50:00,91.4,54.7,29.98,SW,234,3.5,3.5,29,0.00,SCT,,0.00,WeatherDisplay:10.37,2013-08-16 22:50:00,
2013-08-16 15:51:00,91.3,55.5,29.98,East,81,1.2,1.2,30,0.00,SCT,,0.00,WeatherDisplay:10.37,2013-08-16 22:51:00,
2013-08-16 15:52:00,91.4,54.7,29.98,ESE,105,2.3,2.3,29,0.00,SCT,,0.00,WeatherDisplay:10.37,2013-08-16 22:52:00,
2013-08-16 15:54:00,91.4,54.7,29.98,South,171,1.2,1.2,29,0.00,SCT,,0.00,WeatherDisplay:10.37,2013-08-16 22:54:00,
2013-08-16 15:56:00,91.4,54.7,29.98,SSW,210,3.0,3.0,29,0.00,SCT,,0.00,WeatherDisplay:10.37,2013-08-16 22:56:00,
2013-08-16 15:58:00,91.3,52.6,29.98,SSW,211,4.6,4.6,27,0.00,SCT,,0.00,WeatherDisplay:10.37,2013-08-16 22:58:00,
2013-08-16 15:59:00,91.0,53.4,29.98,South,180,2.3,2.3,28,0.00,SCT,,0.00,WeatherDisplay:10.37,2013-08-16 22:59:00,
2013-08-16 16:00:00,90.8,54.2,29.98,SW,233,2.3,2.3,29,0.00,SCT,,0.00,WeatherDisplay:10.37,2013-08-16 23:00:00,
2013-08-16 16:01:00,90.7,52.1,29.97,WSW,237,4.6,4.6,27,0.00,SCT,,0.00,WeatherDisplay:10.37,2013-08-16 23:01:00,
2013-08-16 16:03:00,90.6,53.0,29.98,SSW,197,1.2,1.2,28,0.00,SCT,,0.00,WeatherDisplay:10.37,2013-08-16 23:03:00,
2013-08-16 16:04:00,90.4,52.9,29.98,WSW,241,3.5,3.5,28,0.00,SCT,,0.00,WeatherDisplay:10.37,2013-08-16 23:04:00,
2013-08-16 16:05:00,90.4,52.9,29.98,SSW,212,1.0,5.0,28,0.00,SCT,,0.00,WeatherDisplay:10.37,2013-08-16 23:05:00,
2013-08-16 16:06:00,90.3,51.8,29.97,SSW,203,3.5,3.5,27,0.00,SCT,,0.00,WeatherDisplay:10.37,2013-08-16 23:06:00,
2013-08-16 16:08:00,89.9,53.4,29.97,SSW,196,2.3,2.3,29,0.00,SCT,,0.00,WeatherDisplay:10.37,2013-08-16 23:08:00,
2013-08-16 16:10:00,89.7,53.2,29.97,SW,227,3.5,3.5,29,0.00,SCT,,0.00,WeatherDisplay:10.37,2013-08-16 23:10:00,
2013-08-16 16:11:00,89.4,53.9,29.98,South,173,3.5,3.5,30,0.00,SCT,,0.00,WeatherDisplay:10.37,2013-08-16 23:11:00,
2013-08-16 16:12:00,89.4,53.9,29.98,South,173,3.5,3.5,30,0.00,SCT,,0.00,WeatherDisplay:10.37,2013-08-16 23:12:00,
2013-08-16 16:14:00,89.4,53.9,29.97,SSE,151,9.2,9.2,30,0.00,SCT,,0.00,WeatherDisplay:10.37,2013-08-16 23:14:00,
2013-08-16 16:16:00,89.2,53.7,29.98,SSE,151,3.0,3.0,30,0.00,SCT,,0.00,WeatherDisplay:10.37,2013-08-16 23:16:00,
2013-08-16 16:17:00,89.2,54.6,29.98,SE,140,3.5,3.5,31,0.00,SCT,,0.00,WeatherDisplay:10.37,2013-08-16 23:17:00,
2013-08-16 16:19:00,89.2,54.6,29.97,NW,321,3.5,3.5,31,0.00,SCT,,0.00,WeatherDisplay:10.37,2013-08-16 23:19:00,
2013-08-16 16:20:00,89.2,54.6,29.97,NNE,31,3.5,3.5,31,0.00,SCT,,0.00,WeatherDisplay:10.37,2013-08-16 23:20:00,
2013-08-16 16:22:00,89.3,54.7,29.97,SE,135,4.6,4.6,31,0.00,SCT,,0.00,WeatherDisplay:10.37,2013-08-16 23:22:00,
2013-08-16 16:23:00,89.3,53.8,29.97,NE,53,4.6,4.6,30,0.00,SCT,,0.00,WeatherDisplay:10.37,2013-08-16 23:23:00,
2013-08-16 16:24:00,89.3,54.7,29.97,ENE,78,1.2,1.2,31,0.00,SCT,,0.00,WeatherDisplay:10.37,2013-08-16 23:24:00,
2013-08-16 16:25:00,89.3,54.7,29.97,SE,139,1.2,1.2,31,0.00,SCT,,0.00,WeatherDisplay:10.37,2013-08-16 23:25:00,
2013-08-16 16:28:00,89.4,54.8,29.97,SE,145,2.3,2.3,31,0.00,SCT,,0.00,WeatherDisplay:10.37,2013-08-16 23:28:00,
2013-08-16 16:29:00,89.5,54.0,29.97,South,171,8.1,8.1,30,0.00,SCT,,0.00,WeatherDisplay:10.37,2013-08-16 23:29:00,
2013-08-16 16:30:00,89.5,54.0,29.97,South,171,8.1,8.1,30,0.00,SCT,,0.00,WeatherDisplay:10.37,2013-08-16 23:30:00,
2013-08-16 16:33:00,89.3,53.8,29.97,ESE,119,6.9,6.9,30,0.00,SCT,,0.00,WeatherDisplay:10.37,2013-08-16 23:33:00,
2013-08-16 16:34:00,89.3,53.8,29.97,SE,144,6.9,6.9,30,0.00,SCT,,0.00,WeatherDisplay:10.37,2013-08-16 23:34:00,
2013-08-16 16:35:00,89.2,53.7,29.97,SE,131,5.8,5.8,30,0.00,SCT,,0.00,WeatherDisplay:10.37,2013-08-16 23:35:00,
2013-08-16 16:36:00,89.2,53.7,29.97,East,93,5.8,5.8,30,0.00,SCT,,0.00,WeatherDisplay:10.37,2013-08-16 23:36:00,
2013-08-16 16:39:00,89.3,53.8,29.97,SE,132,3.5,3.5,30,0.00,SCT,,0.00,WeatherDisplay:10.37,2013-08-16 23:39:00,
2013-08-16 16:41:00,89.3,53.8,29.97,SE,146,5.0,5.0,30,0.00,SCT,,0.00,WeatherDisplay:10.37,2013-08-16 23:41:00,
2013-08-16 16:42:00,89.3,53.8,29.97,SE,132,10.0,10.0,30,0.00,SCT,,0.00,WeatherDisplay:10.37,2013-08-16 23:42:00,
2013-08-16 16:44:00,89.3,53.8,29.97,ESE,112,10.4,10.4,30,0.00,SCT,,0.00,WeatherDisplay:10.37,2013-08-16 23:44:00,
2013-08-16 16:45:00,89.3,52.9,29.98,SE,133,5.0,5.0,29,0.00,SCT,,0.00,WeatherDisplay:10.37,2013-08-16 23:45:00,
2013-08-16 16:47:00,89.1,53.6,29.97,South,184,3.5,3.5,30,0.00,SCT,,0.00,WeatherDisplay:10.37,2013-08-16 23:47:00,
2013-08-16 16:48:00,89.1,53.6,29.97,SSW,203,3.5,3.5,30,0.00,SCT,,0.00,WeatherDisplay:10.37,2013-08-16 23:48:00,
2013-08-16 16:50:00,88.9,53.5,29.97,North,350,1.2,1.2,30,0.00,SCT,,0.00,WeatherDisplay:10.37,2013-08-16 23:50:00,
2013-08-16 16:52:00,88.8,53.4,29.97,NE,45,3.5,3.5,30,0.00,SCT,,0.00,WeatherDisplay:10.37,2013-08-16 23:52:00,
2013-08-16 16:53:00,88.7,53.3,29.97,ENE,76,2.3,2.3,30,0.00,SCT,,0.00,WeatherDisplay:10.37,2013-08-16 23:53:00,
2013-08-16 16:55:00,88.7,53.3,29.97,ESE,104,4.6,4.6,30,0.00,SCT,,0.00,WeatherDisplay:10.37,2013-08-16 23:55:00,
2013-08-16 16:57:00,88.8,53.4,29.97,SSE,153,8.1,8.1,30,0.00,SCT,,0.00,WeatherDisplay:10.37,2013-08-16 23:57:00,
2013-08-16 16:58:00,88.8,53.4,29.97,SSE,148,4.6,4.6,30,0.00,SCT,,0.00,WeatherDisplay:10.37,2013-08-16 23:58:00,
2013-08-16 17:01:00,88.7,53.3,29.97,South,191,3.0,3.0,30,0.00,SCT,,0.00,WeatherDisplay:10.37,2013-08-17 00:01:00,
2013-08-16 17:02:00,88.6,53.2,29.97,SSE,156,4.6,4.6,30,0.00,SCT,,0.00,WeatherDisplay:10.37,2013-08-17 00:02:00,
2013-08-16 17:03:00,88.6,53.2,29.97,SSE,157,4.0,4.0,30,0.00,SCT,,0.00,WeatherDisplay:10.37,2013-08-17 00:03:00,
2013-08-16 17:04:00,88.6,53.2,29.97,SSE,149,1.2,1.2,30,0.00,SCT,,0.00,WeatherDisplay:10.37,2013-08-17 00:04:00,
2013-08-16 17:06:00,88.4,53.0,29.97,SSE,168,10.4,10.4,30,0.00,SCT,,0.00,WeatherDisplay:10.37,2013-08-17 00:06:00,
2013-08-16 17:09:00,88.3,52.9,29.97,SE,130,3.5,3.5,30,0.00,SCT,,0.00,WeatherDisplay:10.37,2013-08-17 00:09:00,
2013-08-16 17:10:00,88.3,52.9,29.97,SW,216,3.0,3.0,30,0.00,SCT,,0.00,WeatherDisplay:10.37,2013-08-17 00:10:00,
2013-08-16 17:13:00,88.2,52.9,29.97,NNW,342,3.5,3.5,30,0.00,SCT,,0.00,WeatherDisplay:10.37,2013-08-17 00:13:00,
2013-08-16 17:14:00,88.1,52.8,29.97,NE,43,1.2,0.0,30,0.00,SCT,,0.00,WeatherDisplay:10.37,2013-08-17 00:14:00,
2013-08-16 17:15:00,88.1,52.8,29.97,South,170,2.3,2.3,30,0.00,SCT,,0.00,WeatherDisplay:10.37,2013-08-17 00:15:00,
2013-08-16 17:19:00,87.7,52.4,29.97,ESE,120,8.1,8.1,30,0.00,SCT,,0.00,WeatherDisplay:10.37,2013-08-17 00:19:00,
2013-08-16 17:20:00,87.6,52.3,29.97,South,176,8.1,8.1,30,0.00,SCT,,0.00,WeatherDisplay:10.37,2013-08-17 00:20:00,
2013-08-16 17:21:00,87.6,52.3,29.97,South,176,8.1,8.1,30,0.00,SCT,,0.00,WeatherDisplay:10.37,2013-08-17 00:21:00,
2013-08-16 17:22:00,87.4,53.1,29.97,SW,225,3.5,3.5,31,0.00,SCT,,0.00,WeatherDisplay:10.37,2013-08-17 00:22:00,
2013-08-16 17:25:00,87.3,52.1,29.97,SE,140,9.2,9.2,30,0.00,SCT,,0.00,WeatherDisplay:10.37,2013-08-17 00:25:00,
2013-08-16 17:26:00,87.2,52.9,29.97,SE,143,8.1,8.1,31,0.00,SCT,,0.00,WeatherDisplay:10.37,2013-08-17 00:26:00,
2013-08-16 17:27:00,87.2,52.9,29.97,SSE,152,7.0,7.0,31,0.00,SCT,,0.00,WeatherDisplay:10.37,2013-08-17 00:27:00,
2013-08-16 17:28:00,87.2,52.0,29.97,ESE,109,7.0,7.0,30,0.00,SCT,,0.00,WeatherDisplay:10.37,2013-08-17 00:28:00,
2013-08-16 17:31:00,87.3,52.1,29.97,SE,142,5.8,5.8,30,0.00,SCT,,0.00,WeatherDisplay:10.37,2013-08-17 00:31:00,
2013-08-16 17:32:00,87.3,53.0,29.97,East,84,6.9,6.9,31,0.00,SCT,,0.00,WeatherDisplay:10.37,2013-08-17 00:32:00,
2013-08-16 17:33:00,87.3,52.1,29.97,East,92,6.9,6.9,30,0.00,SCT,,0.00,WeatherDisplay:10.37,2013-08-17 00:33:00,
2013-08-16 17:36:00,87.3,53.0,29.97,WSW,255,5.8,5.8,31,0.00,SCT,,0.00,WeatherDisplay:10.37,2013-08-17 00:36:00,
2013-08-16 17:37:00,87.2,52.0,29.97,NE,36,5.8,5.8,30,0.00,SCT,,0.00,WeatherDisplay:10.37,2013-08-17 00:37:00,
2013-08-16 17:38:00,87.0,52.7,29.97,SE,125,8.0,8.0,31,0.00,SCT,,0.00,WeatherDisplay:10.37,2013-08-17 00:38:00,
2013-08-16 17:39:00,87.0,52.7,29.97,SSE,149,5.0,5.0,31,0.00,SCT,,0.00,WeatherDisplay:10.37,2013-08-17 00:39:00,
2013-08-16 17:43:00,87.0,52.7,29.97,South,173,1.2,1.4,31,0.00,SCT,,0.00,WeatherDisplay:10.37,2013-08-17 00:43:00,
2013-08-16 17:44:00,87.0,52.7,29.97,SSE,150,3.5,3.5,31,0.00,SCT,,0.00,WeatherDisplay:10.37,2013-08-17 00:44:00,
2013-08-16 17:45:00,87.0,52.7,29.97,SSE,149,1.0,4.0,31,0.00,SCT,,0.00,WeatherDisplay:10.37,2013-08-17 00:45:00,
2013-08-16 17:48:00,86.7,52.4,29.97,South,173,3.5,3.5,31,0.00,SCT,,0.00,WeatherDisplay:10.37,2013-08-17 00:48:00,
2013-08-16 17:49:00,86.7,52.4,29.97,South,173,3.5,3.5,31,0.00,SCT,,0.00,WeatherDisplay:10.37,2013-08-17 00:49:00,
2013-08-16 17:50:00,86.6,53.2,29.97,ESE,122,4.6,4.6,32,0.00,SCT,,0.00,WeatherDisplay:10.37,2013-08-17 00:50:00,
2013-08-16 17:52:00,86.5,52.3,29.97,ESE,113,10.4,10.4,31,0.00,SCT,,0.00,WeatherDisplay:10.37,2013-08-17 00:52:00,
2013-08-16 17:54:00,86.3,51.2,29.97,SSE,165,5.8,5.8,30,0.00,SCT,,0.00,WeatherDisplay:10.37,2013-08-17 00:54:00,
2013-08-16 17:55:00,86.2,51.1,29.97,ESE,107,5.8,5.8,30,0.00,SCT,,0.00,WeatherDisplay:10.37,2013-08-17 00:55:00,
2013-08-16 17:57:00,86.1,51.9,29.97,SSE,167,6.0,6.0,31,0.00,SCT,,0.00,WeatherDisplay:10.37,2013-08-17 00:57:00,
2013-08-16 17:59:00,85.8,51.7,29.97,SE,129,8.1,8.1,31,0.00,SCT,,0.00,WeatherDisplay:10.37,2013-08-17 00:59:00,
2013-08-16 18:00:00,85.8,52.5,29.97,ESE,122,0.0,0.0,32,0.00,SCT,,0.00,WeatherDisplay:10.37,2013-08-17 01:00:00,
2013-08-16 18:03:00,85.8,52.5,29.96,SSW,195,6.9,6.9,32,0.00,SCT,,0.00,WeatherDisplay:10.37,2013-08-17 01:03:00,
2013-08-16 18:04:00,85.9,51.8,29.97,South,182,5.0,5.0,31,0.00,SCT,,0.00,WeatherDisplay:10.37,2013-08-17 01:04:00,
2013-08-16 18:05:00,85.9,51.8,29.97,SSE,156,5.8,5.8,31,0.00,SCT,,0.00,WeatherDisplay:10.37,2013-08-17 01:05:00,
2013-08-16 18:07:00,85.9,51.8,29.96,ESE,111,4.6,4.6,31,0.00,SCT,,0.00,WeatherDisplay:10.37,2013-08-17 01:07:00,
2013-08-16 18:08:00,85.9,52.6,29.96,ESE,109,4.6,4.6,32,0.00,SCT,,0.00,WeatherDisplay:10.37,2013-08-17 01:08:00,
2013-08-16 18:09:00,85.8,52.5,29.96,ESE,118,5.8,5.8,32,0.00,SCT,,0.00,WeatherDisplay:10.37,2013-08-17 01:09:00,
2013-08-16 18:10:00,85.8,51.7,29.96,ESE,118,3.5,3.5,31,0.00,SCT,,0.00,WeatherDisplay:10.37,2013-08-17 01:10:00,
2013-08-16 18:12:00,85.7,51.6,29.96,East,86,2.3,2.3,31,0.00,SCT,,0.00,WeatherDisplay:10.37,2013-08-17 01:12:00,
2013-08-16 18:14:00,85.4,51.3,29.97,SE,127,2.3,2.3,31,0.00,SCT,,0.00,WeatherDisplay:10.37,2013-08-17 01:14:00,
2013-08-16 18:15:00,85.3,52.1,29.97,SE,127,2.3,0.0,32,0.00,SCT,,0.00,WeatherDisplay:10.37,2013-08-17 01:15:00,
2013-08-16 18:16:00,85.3,52.1,29.96,SE,127,1.2,1.2,32,0.00,SCT,,0.00,WeatherDisplay:10.37,2013-08-17 01:16:00,
2013-08-16 18:17:00,85.2,52.0,29.96,SE,127,2.3,2.3,32,0.00,SCT,,0.00,WeatherDisplay:10.37,2013-08-17 01:17:00,
2013-08-16 18:20:00,85.1,51.9,29.96,SSE,157,3.5,3.5,32,0.00,SCT,,0.00,WeatherDisplay:10.37,2013-08-17 01:20:00,
2013-08-16 18:21:00,85.1,52.8,29.97,SE,126,3.5,3.5,33,0.00,SCT,,0.00,WeatherDisplay:10.37,2013-08-17 01:21:00,
2013-08-16 18:24:00,85.3,52.9,29.96,SW,221,4.6,4.6,33,0.00,SCT,,0.00,WeatherDisplay:10.37,2013-08-17 01:24:00,
2013-08-16 18:25:00,85.3,52.9,29.96,East,83,1.2,1.2,33,0.00,SCT,,0.00,WeatherDisplay:10.37,2013-08-17 01:25:00,
2013-08-16 18:27:00,85.4,53.0,29.96,SSE,155,3.5,3.5,33,0.00,SCT,,0.00,WeatherDisplay:10.37,2013-08-17 01:27:00,
2013-08-16 18:28:00,85.4,53.0,29.96,SE,125,3.5,3.5,33,0.00,SCT,,0.00,WeatherDisplay:10.37,2013-08-17 01:28:00,
2013-08-16 18:29:00,85.4,53.0,29.96,ESE,106,3.5,3.5,33,0.00,SCT,,0.00,WeatherDisplay:10.37,2013-08-17 01:29:00,
2013-08-16 18:30:00,85.3,52.9,29.96,ESE,121,9.2,9.2,33,0.00,SCT,,0.00,WeatherDisplay:10.37,2013-08-17 01:30:00,
2013-08-16 18:32:00,85.2,52.8,29.96,SE,132,2.3,2.3,33,0.00,SCT,,0.00,WeatherDisplay:10.37,2013-08-17 01:32:00,
2013-08-16 18:34:00,85.1,52.8,29.96,ESE,119,3.5,3.5,33,0.00,SCT,,0.00,WeatherDisplay:10.37,2013-08-17 01:34:00,
2013-08-16 18:36:00,84.9,53.4,29.96,South,172,3.5,3.5,34,0.00,SCT,,0.00,WeatherDisplay:10.37,2013-08-17 01:36:00,
2013-08-16 18:37:00,84.8,53.3,29.97,East,93,1.2,1.2,34,0.00,SCT,,0.00,WeatherDisplay:10.37,2013-08-17 01:37:00,
2013-08-16 18:39:00,84.6,53.1,29.96,ESE,122,3.5,3.5,34,0.00,SCT,,0.00,WeatherDisplay:10.37,2013-08-17 01:39:00,
2013-08-16 18:40:00,84.5,53.8,29.96,SSW,210,3.5,3.5,35,0.00,SCT,,0.00,WeatherDisplay:10.37,2013-08-17 01:40:00,
2013-08-16 18:41:00,84.4,53.8,29.96,SE,126,3.5,3.5,35,0.00,SCT,,0.00,WeatherDisplay:10.37,2013-08-17 01:41:00,
2013-08-16 18:42:00,84.4,54.5,29.96,SW,217,3.5,3.5,36,0.00,SCT,,0.00,WeatherDisplay:10.37,2013-08-17 01:42:00,
2013-08-16 18:43:00,84.2,53.6,29.97,SE,126,3.5,3.5,35,0.00,SCT,,0.00,WeatherDisplay:10.37,2013-08-17 01:43:00,
2013-08-16 18:44:00,84.0,54.2,29.97,ESE,122,3.5,3.5,36,0.00,SCT,,0.00,WeatherDisplay:10.37,2013-08-17 01:44:00,
2013-08-16 18:45:00,83.9,54.1,29.96,ESE,122,3.5,3.5,36,0.00,SCT,,0.00,WeatherDisplay:10.37,2013-08-17 01:45:00,
2013-08-16 18:47:00,83.6,54.6,29.96,NW,318,3.5,3.5,37,0.00,SCT,,0.00,WeatherDisplay:10.37,2013-08-17 01:47:00,
2013-08-16 18:48:00,83.5,54.5,29.97,SE,141,3.5,3.5,37,0.00,SCT,,0.00,WeatherDisplay:10.37,2013-08-17 01:48:00,
2013-08-16 18:49:00,83.3,54.3,29.97,SW,235,3.5,3.5,37,0.00,SCT,,0.00,WeatherDisplay:10.37,2013-08-17 01:49:00,
2013-08-16 18:50:00,83.1,54.9,29.97,ESE,123,6.9,6.9,38,0.00,SCT,,0.00,WeatherDisplay:10.37,2013-08-17 01:50:00,
2013-08-16 18:52:00,83.0,54.8,29.96,SE,138,3.5,3.5,38,0.00,SCT,,0.00,WeatherDisplay:10.37,2013-08-17 01:52:00,
2013-08-16 18:53:00,82.9,54.7,29.97,SSE,158,3.5,3.5,38,0.00,SCT,,0.00,WeatherDisplay:10.37,2013-08-17 01:53:00,
2013-08-16 18:54:00,82.8,54.6,29.96,SSE,156,6.9,6.9,38,0.00,SCT,,0.00,WeatherDisplay:10.37,2013-08-17 01:54:00,
2013-08-16 18:56:00,82.8,55.3,29.97,SSE,157,6.9,6.9,39,0.00,SCT,,0.00,WeatherDisplay:10.37,2013-08-17 01:56:00,
2013-08-16 18:58:00,82.7,55.2,29.97,SE,144,3.5,3.5,39,0.00,SCT,,0.00,WeatherDisplay:10.37,2013-08-17 01:58:00,
2013-08-16 18:59:00,82.5,55.7,29.97,SE,146,4.6,0.0,40,0.00,SCT,,0.00,WeatherDisplay:10.37,2013-08-17 01:59:00,
2013-08-16 19:00:00,82.3,55.6,29.97,ESE,111,1.2,1.2,40,0.00,SCT,,0.00,WeatherDisplay:10.37,2013-08-17 02:00:00,
2013-08-16 19:01:00,82.3,55.6,29.97,SSE,153,1.2,1.2,40,0.00,SCT,,0.00,WeatherDisplay:10.37,2013-08-17 02:01:00,
2013-08-16 19:03:00,82.0,56.0,29.97,SSW,193,6.9,6.9,41,0.00,SCT,,0.00,WeatherDisplay:10.37,2013-08-17 02:03:00,
2013-08-16 19:05:00,81.8,55.8,29.97,SE,136,5.8,5.8,41,0.00,SCT,,0.00,WeatherDisplay:10.37,2013-08-17 02:05:00,
2013-08-16 19:06:00,81.7,56.4,29.97,South,178,5.8,5.8,42,0.00,SCT,,0.00,WeatherDisplay:10.37,2013-08-17 02:06:00,
2013-08-16 19:08:00,81.6,56.3,29.97,South,179,2.3,2.3,42,0.00,SCT,,0.00,WeatherDisplay:10.37,2013-08-17 02:08:00,
2013-08-16 19:11:00,81.4,56.8,29.97,SSE,153,6.9,6.9,43,0.00,SCT,,0.00,WeatherDisplay:10.37,2013-08-17 02:11:00,
2013-08-16 19:12:00,81.3,56.7,29.97,ESE,104,6.9,6.9,43,0.00,SCT,,0.00,WeatherDisplay:10.37,2013-08-17 02:12:00,
2013-08-16 19:13:00,81.1,56.5,29.97,SE,127,4.0,4.0,43,0.00,SCT,,0.00,WeatherDisplay:10.37,2013-08-17 02:13:00,
2013-08-16 19:16:00,80.8,56.9,29.97,SSW,203,8.1,8.1,44,0.00,SCT,,0.00,WeatherDisplay:10.37,2013-08-17 02:16:00,
2013-08-16 19:17:00,80.7,56.8,29.97,SE,129,8.1,8.1,44,0.00,SCT,,0.00,WeatherDisplay:10.37,2013-08-17 02:17:00,
2013-08-16 19:21:00,80.2,56.9,29.97,West,263,3.5,3.5,45,0.00,SCT,,0.00,WeatherDisplay:10.37,2013-08-17 02:21:00,
2013-08-16 19:22:00,79.9,57.3,29.97,SE,139,5.8,5.8,46,0.00,SCT,,0.00,WeatherDisplay:10.37,2013-08-17 02:22:00,
2013-08-16 19:23:00,79.9,57.3,29.97,SSE,159,5.8,5.8,46,0.00,SCT,,0.00,WeatherDisplay:10.37,2013-08-17 02:23:00,
2013-08-16 19:26:00,79.6,57.0,29.97,East,85,1.2,1.2,46,0.00,SCT,,0.00,WeatherDisplay:10.37,2013-08-17 02:26:00,
2013-08-16 19:27:00,79.6,57.0,29.97,NW,313,1.2,1.2,46,0.00,SCT,,0.00,WeatherDisplay:10.37,2013-08-17 02:27:00,
2013-08-16 19:28:00,79.5,56.9,29.97,NNE,19,3.0,3.0,46,0.00,SCT,,0.00,WeatherDisplay:10.37,2013-08-17 02:28:00,
2013-08-16 19:29:00,79.2,57.2,29.97,SSE,150,6.9,6.9,47,0.00,SCT,,0.00,WeatherDisplay:10.37,2013-08-17 02:29:00,
2013-08-16 19:31:00,78.9,57.0,29.97,SSW,196,2.3,2.3,47,0.00,SCT,,0.00,WeatherDisplay:10.37,2013-08-17 02:31:00,
2013-08-16 19:32:00,78.9,57.0,29.97,SSW,196,1.2,1.2,47,0.00,SCT,,0.00,WeatherDisplay:10.37,2013-08-17 02:32:00,
2013-08-16 19:33:00,78.9,57.0,29.97,West,267,1.2,1.2,47,0.00,SCT,,0.00,WeatherDisplay:10.37,2013-08-17 02:33:00,
2013-08-16 19:35:00,78.7,57.4,29.97,SSW,206,1.2,0.0,48,0.00,SCT,,0.00,WeatherDisplay:10.37,2013-08-17 02:35:00,
2013-08-16 19:36:00,78.7,57.4,29.97,SSW,201,0.0,0.0,48,0.00,SCT,,0.00,WeatherDisplay:10.37,2013-08-17 02:36:00,
2013-08-16 19:37:00,78.6,56.7,29.97,SSW,201,1.2,1.2,47,0.00,SCT,,0.00,WeatherDisplay:10.37,2013-08-17 02:37:00,
2013-08-16 19:38:00,78.5,57.2,29.97,SSW,201,1.2,1.2,48,0.00,SCT,,0.00,WeatherDisplay:10.37,2013-08-17 02:38:00,
2013-08-16 19:39:00,78.5,57.2,29.97,SSW,201,1.2,1.2,48,0.00,SCT,,0.00,WeatherDisplay:10.37,2013-08-17 02:39:00,
2013-08-16 19:42:00,78.2,57.5,29.97,SSW,201,1.2,1.2,49,0.00,SCT,,0.00,WeatherDisplay:10.37,2013-08-17 02:42:00,
2013-08-16 19:43:00,78.0,56.7,29.97,WSW,247,3.5,3.5,48,0.00,SCT,,0.00,WeatherDisplay:10.37,2013-08-17 02:43:00,
2013-08-16 19:45:00,77.9,57.2,29.98,WSW,246,0.0,0.0,49,0.00,SCT,,0.00,WeatherDisplay:10.37,2013-08-17 02:45:00,
2013-08-16 19:48:00,77.8,57.1,29.97,SSW,204,2.0,0.0,49,0.00,SCT,,0.00,WeatherDisplay:10.37,2013-08-17 02:48:00,
2013-08-16 19:49:00,77.7,57.0,29.98,East,81,0.0,0.3,49,0.00,SCT,,0.00,WeatherDisplay:10.37,2013-08-17 02:49:00,
2013-08-16 19:50:00,77.7,57.0,29.98,SSW,201,1.2,1.2,49,0.00,SCT,,0.00,WeatherDisplay:10.37,2013-08-17 02:50:00,
2013-08-16 19:54:00,77.4,56.7,29.98,SSW,200,3.5,3.5,49,0.00,SCT,,0.00,WeatherDisplay:10.37,2013-08-17 02:54:00,
2013-08-16 19:55:00,77.2,57.1,29.98,SSW,199,0.0,0.0,50,0.00,SCT,,0.00,WeatherDisplay:10.37,2013-08-17 02:55:00,
2013-08-16 19:59:00,77.3,57.2,29.98,SSE,151,0.0,0.0,50,0.00,SCT,,0.00,WeatherDisplay:10.37,2013-08-17 02:59:00,
2013-08-16 20:00:00,77.3,57.2,29.97,SSW,208,2.3,2.3,50,0.00,SCT,,0.00,WeatherDisplay:10.37,2013-08-17 03:00:00,
2013-08-16 20:01:00,77.3,57.2,29.98,SW,228,2.3,2.3,50,0.00,SCT,,0.00,WeatherDisplay:10.37,2013-08-17 03:01:00,
2013-08-16 20:04:00,77.5,57.4,29.98,SSE,155,0.0,0.0,50,0.00,SCT,,0.00,WeatherDisplay:10.37,2013-08-17 03:04:00,
2013-08-16 20:06:00,77.5,57.4,29.98,ESE,122,1.2,1.2,50,0.00,SCT,,0.00,WeatherDisplay:10.37,2013-08-17 03:06:00,
2013-08-16 20:09:00,77.4,57.3,29.98,SE,125,0.0,0.0,50,0.00,SCT,,0.00,WeatherDisplay:10.37,2013-08-17 03:09:00,
2013-08-16 20:10:00,77.4,57.3,29.98,SE,125,0.0,0.0,50,0.00,SCT,,0.00,WeatherDisplay:10.37,2013-08-17 03:10:00,
2013-08-16 20:11:00,77.4,57.3,29.98,SE,126,0.0,0.1,50,0.00,SCT,,0.00,WeatherDisplay:10.37,2013-08-17 03:11:00,
2013-08-16 20:12:00,77.4,57.3,29.98,SE,135,1.2,1.2,50,0.00,SCT,,0.00,WeatherDisplay:10.37,2013-08-17 03:12:00,
2013-08-16 20:14:00,77.4,57.3,29.98,SE,128,2.0,2.0,50,0.00,SCT,,0.00,WeatherDisplay:10.37,2013-08-17 03:14:00,
2013-08-16 20:15:00,77.4,57.3,29.98,SE,126,3.0,3.0,50,0.00,SCT,,0.00,WeatherDisplay:10.37,2013-08-17 03:15:00,
2013-08-16 20:16:00,77.3,57.2,29.98,ESE,106,3.5,3.5,50,0.00,SCT,,0.00,WeatherDisplay:10.37,2013-08-17 03:16:00,
2013-08-16 20:17:00,77.2,57.1,29.98,SE,143,1.2,1.2,50,0.00,SCT,,0.00,WeatherDisplay:10.37,2013-08-17 03:17:00,
2013-08-16 20:19:00,77.1,57.0,29.98,SE,143,0.0,0.0,50,0.00,SCT,,0.00,WeatherDisplay:10.37,2013-08-17 03:19:00,
2013-08-16 20:21:00,77.0,56.9,29.98,SE,143,0.0,0.1,50,0.00,SCT,,0.00,WeatherDisplay:10.37,2013-08-17 03:21:00,
2013-08-16 20:22:00,77.0,57.5,29.98,SE,143,1.2,0.0,51,0.00,SCT,,0.00,WeatherDisplay:10.37,2013-08-17 03:22:00,
2013-08-16 20:24:00,76.9,57.4,29.98,WSW,255,1.2,0.0,51,0.00,SCT,,0.00,WeatherDisplay:10.37,2013-08-17 03:24:00,
2013-08-16 20:26:00,76.8,57.3,29.98,WSW,255,0.0,0.0,51,0.00,SCT,,0.00,WeatherDisplay:10.37,2013-08-17 03:26:00,
2013-08-16 20:27:00,76.7,57.2,29.98,SE,126,1.2,0.0,51,0.00,SCT,,0.00,WeatherDisplay:10.37,2013-08-17 03:27:00,
2013-08-16 20:28:00,76.6,57.1,29.98,SSE,159,0.0,0.0,51,0.00,SCT,,0.00,WeatherDisplay:10.37,2013-08-17 03:28:00,
2013-08-16 20:31:00,76.4,57.5,29.98,SE,142,0.0,0.0,52,0.00,SCT,,0.00,WeatherDisplay:10.37,2013-08-17 03:31:00,
2013-08-16 20:32:00,76.3,57.4,29.98,SE,134,1.2,1.2,52,0.00,SCT,,0.00,WeatherDisplay:10.37,2013-08-17 03:32:00,
2013-08-16 20:33:00,76.3,57.4,29.98,SE,134,1.2,0.0,52,0.00,SCT,,0.00,WeatherDisplay:10.37,2013-08-17 03:33:00,
2013-08-16 20:36:00,76.0,57.1,29.98,SE,130,2.3,2.3,52,0.00,SCT,,0.00,WeatherDisplay:10.37,2013-08-17 03:36:00,
2013-08-16 20:37:00,75.9,57.0,29.98,SE,129,2.3,0.0,52,0.00,SCT,,0.00,WeatherDisplay:10.37,2013-08-17 03:37:00,
2013-08-16 20:38:00,75.9,57.0,29.98,SE,129,2.3,0.0,52,0.00,SCT,,0.00,WeatherDisplay:10.37,2013-08-17 03:38:00,
2013-08-16 20:39:00,75.8,57.4,29.98,East,100,0.0,0.1,53,0.00,SCT,,0.00,WeatherDisplay:10.37,2013-08-17 03:39:00,
2013-08-16 20:42:00,75.6,57.3,29.98,ESE,115,1.2,1.2,53,0.00,SCT,,0.00,WeatherDisplay:10.37,2013-08-17 03:42:00,
2013-08-16 20:43:00,75.5,57.2,29.98,SE,129,4.6,4.6,53,0.00,SCT,,0.00,WeatherDisplay:10.37,2013-08-17 03:43:00,
2013-08-16 20:44:00,75.5,57.2,29.98,ENE,76,2.3,2.3,53,0.00,SCT,,0.00,WeatherDisplay:10.37,2013-08-17 03:44:00,
2013-08-16 20:45:00,75.4,57.1,29.98,ESE,123,2.3,2.3,53,0.00,SCT,,0.00,WeatherDisplay:10.37,2013-08-17 03:45:00,
2013-08-16 20:48:00,75.2,57.4,29.98,SW,214,3.5,3.5,54,0.00,SCT,,0.00,WeatherDisplay:10.37,2013-08-17 03:48:00,
2013-08-16 20:49:00,75.0,57.2,29.98,SE,133,2.3,2.3,54,0.00,SCT,,0.00,WeatherDisplay:10.37,2013-08-17 03:49:00,
2013-08-16 20:50:00,75.0,57.2,29.98,SE,132,2.3,2.3,54,0.00,SCT,,0.00,WeatherDisplay:10.37,2013-08-17 03:50:00,
2013-08-16 20:52:00,74.8,57.0,29.98,SE,132,0.0,0.0,54,0.00,SCT,,0.00,WeatherDisplay:10.37,2013-08-17 03:52:00,
2013-08-16 20:53:00,74.8,57.0,29.98,SSE,163,0.0,0.0,54,0.00,SCT,,0.00,WeatherDisplay:10.37,2013-08-17 03:53:00,
2013-08-16 20:54:00,74.8,57.0,29.98,SSW,195,1.0,1.0,54,0.00,SCT,,0.00,WeatherDisplay:10.37,2013-08-17 03:54:00,
2013-08-16 20:55:00,74.7,56.9,29.98,WNW,290,1.2,1.2,54,0.00,SCT,,0.00,WeatherDisplay:10.37,2013-08-17 03:55:00,
2013-08-16 20:58:00,74.3,57.1,29.99,SSE,151,2.3,2.3,55,0.00,SCT,,0.00,WeatherDisplay:10.37,2013-08-17 03:58:00,
2013-08-16 20:59:00,74.0,57.3,29.99,SW,218,2.3,2.3,56,0.00,SCT,,0.00,WeatherDisplay:10.37,2013-08-17 03:59:00,
2013-08-16 21:00:00,73.8,57.1,29.99,WSW,248,1.2,1.2,56,0.00,SCT,,0.00,WeatherDisplay:10.37,2013-08-17 04:00:00,
2013-08-16 21:01:00,73.8,57.1,29.99,WSW,248,1.2,0.0,56,0.00,SCT,,0.00,WeatherDisplay:10.37,2013-08-17 04:01:00,
2013-08-16 21:02:00,73.6,57.4,29.99,SSW,193,1.0,1.0,57,0.00,SCT,,0.00,WeatherDisplay:10.37,2013-08-17 04:02:00,
2013-08-16 21:03:00,73.5,57.3,29.99,SSW,201,0.0,0.5,57,0.00,SCT,,0.00,WeatherDisplay:10.37,2013-08-17 04:03:00,
2013-08-16 21:06:00,73.2,57.1,29.99,SW,221,1.2,1.2,57,0.00,SCT,,0.00,WeatherDisplay:10.37,2013-08-17 04:06:00,
2013-08-16 21:07:00,73.1,57.0,29.99,SW,221,1.2,1.2,57,0.00,SCT,,0.00,WeatherDisplay:10.37,2013-08-17 04:07:00,
2013-08-16 21:08:00,73.0,56.9,29.99,SW,221,0.0,0.0,57,0.00,SCT,,0.00,WeatherDisplay:10.37,2013-08-17 04:08:00,
2013-08-16 21:09:00,72.9,57.3,29.99,SW,221,0.0,0.0,58,0.00,SCT,,0.00,WeatherDisplay:10.37,2013-08-17 04:09:00,
2013-08-16 21:12:00,72.4,56.8,29.99,SSW,203,2.0,2.0,58,0.00,SCT,,0.00,WeatherDisplay:10.37,2013-08-17 04:12:00,
2013-08-16 21:13:00,72.2,56.6,29.99,SSW,203,2.3,2.3,58,0.00,SCT,,0.00,WeatherDisplay:10.37,2013-08-17 04:13:00,
2013-08-16 21:14:00,72.2,57.1,29.99,SE,140,2.3,2.3,59,0.00,SCT,,0.00,WeatherDisplay:10.37,2013-08-17 04:14:00,
2013-08-16 21:18:00,71.8,56.7,29.99,ESE,123,0.0,0.0,59,0.00,SCT,,0.00,WeatherDisplay:10.37,2013-08-17 04:18:00,
2013-08-16 21:19:00,71.8,56.7,29.99,ESE,123,0.0,0.0,59,0.00,SCT,,0.00,WeatherDisplay:10.37,2013-08-17 04:19:00,
2013-08-16 21:20:00,71.8,56.7,29.99,ESE,123,0.0,0.0,59,0.00,SCT,,0.00,WeatherDisplay:10.37,2013-08-17 04:20:00,
2013-08-16 21:23:00,71.7,56.6,29.99,ESE,116,2.3,2.3,59,0.00,SCT,,0.00,WeatherDisplay:10.37,2013-08-17 04:23:00,
2013-08-16 21:24:00,71.7,56.6,29.99,ESE,113,3.5,3.5,59,0.00,SCT,,0.00,WeatherDisplay:10.37,2013-08-17 04:24:00,
2013-08-16 21:25:00,71.7,56.6,29.99,ESE,113,3.5,0.0,59,0.00,SCT,,0.00,WeatherDisplay:10.37,2013-08-17 04:25:00,
2013-08-16 21:27:00,71.8,56.7,29.99,East,94,0.0,0.1,59,0.00,SCT,,0.00,WeatherDisplay:10.37,2013-08-17 04:27:00,
2013-08-16 21:28:00,71.8,56.7,29.99,SE,126,1.2,1.2,59,0.00,SCT,,0.00,WeatherDisplay:10.37,2013-08-17 04:28:00,
2013-08-16 21:29:00,71.7,56.6,29.99,SE,126,3.5,3.5,59,0.00,SCT,,0.00,WeatherDisplay:10.37,2013-08-17 04:29:00,
2013-08-16 21:30:00,71.7,56.6,30.00,SE,126,3.5,0.0,59,0.00,SCT,,0.00,WeatherDisplay:10.37,2013-08-17 04:30:00,
2013-08-16 21:33:00,71.6,56.5,29.99,SE,126,1.2,0.0,59,0.00,SCT,,0.00,WeatherDisplay:10.37,2013-08-17 04:33:00,
2013-08-16 21:34:00,71.6,56.5,29.99,SE,126,0.0,0.0,59,0.00,SCT,,0.00,WeatherDisplay:10.37,2013-08-17 04:34:00,
2013-08-16 21:35:00,71.6,56.5,29.99,SE,128,0.0,1.0,59,0.00,SCT,,0.00,WeatherDisplay:10.37,2013-08-17 04:35:00,
2013-08-16 21:36:00,71.6,56.5,29.99,South,170,1.2,1.2,59,0.00,SCT,,0.00,WeatherDisplay:10.37,2013-08-17 04:36:00,
2013-08-16 21:38:00,71.3,56.7,30.00,SSW,202,0.0,0.0,60,0.00,SCT,,0.00,WeatherDisplay:10.37,2013-08-17 04:38:00,
2013-08-16 21:40:00,71.1,56.5,30.00,SSW,202,1.2,0.0,60,0.00,SCT,,0.00,WeatherDisplay:10.37,2013-08-17 04:40:00,
2013-08-16 21:41:00,71.0,56.4,30.00,SSW,202,1.2,0.0,60,0.00,SCT,,0.00,WeatherDisplay:10.37,2013-08-17 04:41:00,
2013-08-16 21:44:00,70.4,56.3,30.00,South,188,1.2,0.0,61,0.00,SCT,,0.00,WeatherDisplay:10.37,2013-08-17 04:44:00,
2013-08-16 21:45:00,70.2,56.1,30.00,South,188,0.0,0.0,61,0.00,SCT,,0.00,WeatherDisplay:10.37,2013-08-17 04:45:00,
2013-08-16 21:46:00,70.0,56.4,30.00,South,188,0.0,0.0,62,0.00,SCT,,0.00,WeatherDisplay:10.37,2013-08-17 04:46:00,
2013-08-16 21:47:00,69.8,56.2,30.00,SSW,205,1.0,1.0,62,0.00,SCT,,0.00,WeatherDisplay:10.37,2013-08-17 04:47:00,
2013-08-16 21:49:00,69.4,56.3,30.00,South,171,1.2,0.0,63,0.00,SCT,,0.00,WeatherDisplay:10.37,2013-08-17 04:49:00,
2013-08-16 21:51:00,69.4,56.3,30.00,South,171,0.0,0.0,63,0.00,SCT,,0.00,WeatherDisplay:10.37,2013-08-17 04:51:00,
2013-08-16 21:52:00,69.5,56.3,30.00,WNW,295,0.0,0.0,63,0.00,SCT,,0.00,WeatherDisplay:10.37,2013-08-17 04:52:00,
2013-08-16 21:53:00,69.6,56.4,30.00,WNW,295,0.0,0.0,63,0.00,SCT,,0.00,WeatherDisplay:10.37,2013-08-17 04:53:00,
2013-08-16 21:55:00,69.6,56.0,30.00,WSW,248,0.0,1.0,62,0.00,SCT,,0.00,WeatherDisplay:10.37,2013-08-17 04:55:00,
2013-08-16 21:56:00,69.5,56.3,30.00,South,188,1.2,0.0,63,0.00,SCT,,0.00,WeatherDisplay:10.37,2013-08-17 04:56:00,
2013-08-16 21:57:00,69.5,55.9,30.00,South,188,0.0,0.0,62,0.00,SCT,,0.00,WeatherDisplay:10.37,2013-08-17 04:57:00,
2013-08-16 21:58:00,69.5,56.3,30.00,SE,129,1.2,1.2,63,0.00,SCT,,0.00,WeatherDisplay:10.37,2013-08-17 04:58:00,
2013-08-16 22:00:00,69.5,56.4,30.00,West,261,0.0,3.0,63,0.00,SCT,,0.00,WeatherDisplay:10.37,2013-08-17 05:00:00,
2013-08-16 22:02:00,69.4,56.3,30.00,SW,235,4.6,0.0,63,0.00,SCT,,0.00,WeatherDisplay:10.37,2013-08-17 05:02:00,
2013-08-16 22:03:00,69.4,56.3,30.00,SW,235,4.6,0.0,63,0.00,SCT,,0.00,WeatherDisplay:10.37,2013-08-17 05:03:00,
2013-08-16 22:04:00,69.3,56.2,30.00,SW,235,1.2,1.2,63,0.00,SCT,,0.00,WeatherDisplay:10.37,2013-08-17 05:04:00,
2013-08-16 22:07:00,69.2,55.6,30.00,SW,235,0.0,0.0,62,0.00,SCT,,0.00,WeatherDisplay:10.37,2013-08-17 05:07:00,
2013-08-16 22:08:00,69.3,55.7,30.00,SW,235,0.0,0.0,62,0.00,SCT,,0.00,WeatherDisplay:10.37,2013-08-17 05:08:00,
2013-08-16 22:09:00,69.3,55.7,30.00,SW,235,0.0,0.0,62,0.00,SCT,,0.00,WeatherDisplay:10.37,2013-08-17 05:09:00,
2013-08-16 22:11:00,69.2,55.6,30.00,SW,229,1.0,0.0,62,0.00,SCT,,0.00,WeatherDisplay:10.37,2013-08-17 05:11:00,
2013-08-16 22:12:00,69.0,55.4,30.00,South,171,1.2,1.2,62,0.00,SCT,,0.00,WeatherDisplay:10.37,2013-08-17 05:12:00,
2013-08-16 22:14:00,69.0,55.9,30.00,South,170,0.0,0.0,63,0.00,SCT,,0.00,WeatherDisplay:10.37,2013-08-17 05:14:00,
2013-08-16 22:15:00,68.9,55.8,30.00,South,184,0.0,0.1,63,0.00,SCT,,0.00,WeatherDisplay:10.37,2013-08-17 05:15:00,
2013-08-16 22:17:00,68.9,55.8,30.00,SSW,192,1.2,0.0,63,0.00,SCT,,0.00,WeatherDisplay:10.37,2013-08-17 05:17:00,
2013-08-16 22:18:00,68.8,55.7,30.00,SSW,192,0.0,0.0,63,0.00,SCT,,0.00,WeatherDisplay:10.37,2013-08-17 05:18:00,
2013-08-16 22:19:00,68.8,55.7,30.00,South,179,0.0,0.1,63,0.00,SCT,,0.00,WeatherDisplay:10.37,2013-08-17 05:19:00,
2013-08-16 22:20:00,68.8,55.7,30.00,South,171,1.2,1.2,63,0.00,SCT,,0.00,WeatherDisplay:10.37,2013-08-17 05:20:00,
2013-08-16 22:23:00,68.3,55.6,30.00,SW,224,2.3,0.0,64,0.00,SCT,,0.00,WeatherDisplay:10.37,2013-08-17 05:23:00,
2013-08-16 22:24:00,68.0,55.4,30.00,SW,224,0.0,0.0,64,0.00,SCT,,0.00,WeatherDisplay:10.37,2013-08-17 05:24:00,
2013-08-16 22:25:00,67.9,55.7,30.00,SW,224,0.0,0.0,65,0.00,SCT,,0.00,WeatherDisplay:10.37,2013-08-17 05:25:00,
2013-08-16 22:28:00,67.6,55.4,30.00,SE,124,3.5,3.5,65,0.00,SCT,,0.00,WeatherDisplay:10.37,2013-08-17 05:28:00,
2013-08-16 22:29:00,67.6,55.4,30.00,SE,124,3.5,0.0,65,0.00,SCT,,0.00,WeatherDisplay:10.37,2013-08-17 05:29:00,
2013-08-16 22:30:00,67.6,55.4,30.00,SSE,164,0.0,4.0,65,0.00,SCT,,0.00,WeatherDisplay:10.37,2013-08-17 05:30:00,
2013-08-16 22:31:00,67.6,55.4,30.00,SE,129,2.3,0.0,65,0.00,SCT,,0.00,WeatherDisplay:10.37,2013-08-17 05:31:00,
2013-08-16 22:34:00,67.5,55.3,30.00,SSW,196,2.3,2.3,65,0.00,SCT,,0.00,WeatherDisplay:10.37,2013-08-17 05:34:00,
2013-08-16 22:35:00,67.6,55.4,30.00,SSW,197,1.2,1.2,65,0.00,SCT,,0.00,WeatherDisplay:10.37,2013-08-17 05:35:00,
2013-08-16 22:36:00,67.6,55.4,30.00,SSW,198,2.3,2.3,65,0.00,SCT,,0.00,WeatherDisplay:10.37,2013-08-17 05:36:00,
2013-08-16 22:39:00,67.4,55.6,30.00,South,180,3.5,3.5,66,0.00,SCT,,0.00,WeatherDisplay:10.37,2013-08-17 05:39:00,
2013-08-16 22:40:00,67.4,55.2,30.00,South,174,1.2,1.2,65,0.00,SCT,,0.00,WeatherDisplay:10.37,2013-08-17 05:40:00,
2013-08-16 22:41:00,67.4,55.6,30.00,SE,141,2.3,2.3,66,0.00,SCT,,0.00,WeatherDisplay:10.37,2013-08-17 05:41:00,
2013-08-16 22:42:00,67.4,55.6,30.00,SE,141,2.3,2.3,66,0.00,SCT,,0.00,WeatherDisplay:10.37,2013-08-17 05:42:00,
2013-08-16 22:45:00,67.4,55.6,30.00,SE,131,3.5,0.0,66,0.00,SCT,,0.00,WeatherDisplay:10.37,2013-08-17 05:45:00,
2013-08-16 22:46:00,67.4,55.6,30.00,SSW,196,1.2,1.2,66,0.00,SCT,,0.00,WeatherDisplay:10.37,2013-08-17 05:46:00,
2013-08-16 22:47:00,67.4,55.6,30.00,SSW,196,2.3,0.0,66,0.00,SCT,,0.00,WeatherDisplay:10.37,2013-08-17 05:47:00,
2013-08-16 22:48:00,67.1,55.4,30.00,SSW,196,0.0,0.0,66,0.00,SCT,,0.00,WeatherDisplay:10.37,2013-08-17 05:48:00,
2013-08-16 22:51:00,67.1,55.4,30.00,SSW,206,1.2,1.2,66,0.00,SCT,,0.00,WeatherDisplay:10.37,2013-08-17 05:51:00,
2013-08-16 22:52:00,67.1,55.4,30.00,South,190,2.3,2.3,66,0.00,SCT,,0.00,WeatherDisplay:10.37,2013-08-17 05:52:00,
2013-08-16 22:53:00,67.1,55.4,30.00,SSW,212,1.2,1.2,66,0.00,SCT,,0.00,WeatherDisplay:10.37,2013-08-17 05:53:00,
2013-08-16 22:56:00,67.1,55.4,30.00,SE,132,2.3,2.3,66,0.00,SCT,,0.00,WeatherDisplay:10.37,2013-08-17 05:56:00,
2013-08-16 22:57:00,67.0,55.3,30.00,SE,132,2.3,0.0,66,0.00,SCT,,0.00,WeatherDisplay:10.37,2013-08-17 05:57:00,
2013-08-16 22:58:00,67.0,55.3,30.00,SE,132,1.2,1.2,66,0.00,SCT,,0.00,WeatherDisplay:10.37,2013-08-17 05:58:00,
2013-08-16 22:59:00,67.0,55.3,29.99,SE,132,1.2,1.2,66,0.00,SCT,,0.00,WeatherDisplay:10.37,2013-08-17 05:59:00,
2013-08-16 23:02:00,66.7,55.4,30.00,SSE,156,0.0,0.0,67,0.00,SCT,,0.00,WeatherDisplay:10.37,2013-08-17 06:02:00,
2013-08-16 23:03:00,66.6,55.3,30.00,SSW,201,1.0,1.1,67,0.00,SCT,,0.00,WeatherDisplay:10.37,2013-08-17 06:03:00,
2013-08-16 23:04:00,66.6,55.3,30.00,SSW,202,2.3,2.3,67,0.00,SCT,,0.00,WeatherDisplay:10.37,2013-08-17 06:04:00,
2013-08-16 23:07:00,66.5,55.6,30.00,ESE,117,1.2,1.2,68,0.00,SCT,,0.00,WeatherDisplay:10.37,2013-08-17 06:07:00,
2013-08-16 23:08:00,66.4,55.1,30.00,SSW,209,4.6,4.6,67,0.00,SCT,,0.00,WeatherDisplay:10.37,2013-08-17 06:08:00,
2013-08-16 23:09:00,66.5,55.6,30.00,SSW,199,1.2,1.2,68,0.00,SCT,,0.00,WeatherDisplay:10.37,2013-08-17 06:09:00,
2013-08-16 23:10:00,66.4,55.6,30.00,SSW,198,0.0,7.0,68,0.00,SCT,,0.00,WeatherDisplay:10.37,2013-08-17 06:10:00,
2013-08-16 23:12:00,66.3,55.4,30.00,SSE,149,3.5,3.5,68,0.00,SCT,,0.00,WeatherDisplay:10.37,2013-08-17 06:12:00,
2013-08-16 23:13:00,66.1,55.2,30.00,South,191,1.2,1.2,68,0.00,SCT,,0.00,WeatherDisplay:10.37,2013-08-17 06:13:00,
2013-08-16 23:14:00,66.1,55.2,30.00,SSW,193,1.2,1.2,68,0.00,SCT,,0.00,WeatherDisplay:10.37,2013-08-17 06:14:00,
2013-08-16 23:17:00,66.1,55.2,30.00,WSW,247,1.2,1.2,68,0.00,SCT,,0.00,WeatherDisplay:10.37,2013-08-17 06:17:00,
2013-08-16 23:18:00,66.1,55.2,30.00,WSW,249,2.3,0.0,68,0.00,SCT,,0.00,WeatherDisplay:10.37,2013-08-17 06:18:00,
2013-08-16 23:19:00,66.1,55.2,30.00,WSW,249,0.0,0.0,68,0.00,SCT,,0.00,WeatherDisplay:10.37,2013-08-17 06:19:00,
2013-08-16 23:22:00,66.2,55.3,30.00,SSE,149,1.0,1.0,68,0.00,SCT,,0.00,WeatherDisplay:10.37,2013-08-17 06:22:00,
2013-08-16 23:24:00,66.1,55.2,30.00,SSE,157,0.0,0.0,68,0.00,SCT,,0.00,WeatherDisplay:10.37,2013-08-17 06:24:00,
2013-08-16 23:25:00,66.1,55.2,30.00,SE,146,1.2,1.2,68,0.00,SCT,,0.00,WeatherDisplay:10.37,2013-08-17 06:25:00,
2013-08-16 23:27:00,66.0,55.1,30.00,ESE,116,0.0,0.6,68,0.00,SCT,,0.00,WeatherDisplay:10.37,2013-08-17 06:27:00,
2013-08-16 23:29:00,65.8,55.3,30.00,ESE,109,2.3,2.3,69,0.00,SCT,,0.00,WeatherDisplay:10.37,2013-08-17 06:29:00,
2013-08-16 23:30:00,65.8,55.3,30.00,ESE,110,2.3,2.3,69,0.00,SCT,,0.00,WeatherDisplay:10.37,2013-08-17 06:30:00,
2013-08-16 23:31:00,65.7,55.2,30.00,WSW,239,2.3,2.3,69,0.00,SCT,,0.00,WeatherDisplay:10.37,2013-08-17 06:31:00,
2013-08-16 23:33:00,65.8,54.9,30.00,ESE,117,2.0,2.0,68,0.00,SCT,,0.00,WeatherDisplay:10.37,2013-08-17 06:33:00,
2013-08-16 23:35:00,65.7,54.8,30.00,SSW,200,3.5,0.0,68,0.00,SCT,,0.00,WeatherDisplay:10.37,2013-08-17 06:35:00,
2013-08-16 23:36:00,65.8,54.9,30.00,SE,139,2.0,2.0,68,0.00,SCT,,0.00,WeatherDisplay:10.37,2013-08-17 06:36:00,
2013-08-16 23:37:00,65.8,54.9,30.00,SE,139,2.0,2.0,68,0.00,SCT,,0.00,WeatherDisplay:10.37,2013-08-17 06:37:00,
2013-08-16 23:41:00,65.8,54.9,30.00,ESE,111,0.0,0.0,68,0.00,SCT,,0.00,WeatherDisplay:10.37,2013-08-17 06:41:00,
2013-08-16 23:42:00,65.8,54.5,30.00,ESE,111,0.0,0.0,67,0.00,SCT,,0.00,WeatherDisplay:10.37,2013-08-17 06:42:00,
2013-08-16 23:43:00,65.8,54.5,30.00,ESE,111,0.0,0.0,67,0.00,SCT,,0.00,WeatherDisplay:10.37,2013-08-17 06:43:00,
2013-08-16 23:46:00,65.8,54.5,30.00,ESE,111,0.0,0.0,67,0.00,SCT,,0.00,WeatherDisplay:10.37,2013-08-17 06:46:00,
2013-08-16 23:47:00,65.8,54.5,30.00,SE,138,0.0,0.1,67,0.00,SCT,,0.00,WeatherDisplay:10.37,2013-08-17 06:47:00,
2013-08-16 23:48:00,65.8,54.9,30.00,SE,141,1.2,1.2,68,0.00,SCT,,0.00,WeatherDisplay:10.37,2013-08-17 06:48:00,
2013-08-16 23:51:00,65.6,54.8,30.00,SW,219,1.2,1.2,68,0.00,SCT,,0.00,WeatherDisplay:10.37,2013-08-17 06:51:00,
2013-08-16 23:52:00,65.6,54.8,30.00,SW,219,1.2,1.2,68,0.00,SCT,,0.00,WeatherDisplay:10.37,2013-08-17 06:52:00,
2013-08-16 23:53:00,65.6,54.8,30.00,SW,219,0.0,0.0,68,0.00,SCT,,0.00,WeatherDisplay:10.37,2013-08-17 06:53:00,
2013-08-16 23:54:00,65.6,54.8,30.00,SW,219,0.0,0.0,68,0.00,SCT,,0.00,WeatherDisplay:10.37,2013-08-17 06:54:00,
2013-08-16 23:57:00,65.7,54.4,29.99,SSW,213,1.2,0.0,67,0.00,SCT,,0.00,WeatherDisplay:10.37,2013-08-17 06:57:00,
2013-08-16 23:58:00,65.6,54.3,30.00,SSW,213,0.0,0.0,67,0.00,SCT,,0.00,WeatherDisplay:10.37,2013-08-17 06:58:00,
2013-08-16 23:59:00,65.6,54.3,30.00,SSW,213,0.0,0.0,67,0.00,SCT,,0.00,WeatherDisplay:10.37,2013-08-17 06:59:00,